CW1648 Weather Reports


Display with metric or nautical units.
time (UTC)temp
F
wind
direction
speed
MPH
gust
MPH
rain 1hr
in
rain 24hr
in
rain mn
in
humidity
%
barometer
mb
20260904225531 81 263 0.0 0.0 0.00 0.02 0.02 71 1008.2
20260904225419 81 263 0.0 0.0 0.00 0.00 0.02 71 1008.2
20260904225323 81 263 0.0 0.0 0.00 0.00 0.02 71 1008.3
20260904225223 81 263 0.0 0.0 0.00 0.00 0.02 71 1008.2
20260904225120 82 263 0.0 0.0 0.00 0.00 0.02 71 1008.3
20260904225030 82 263 0.0 0.0 0.00 0.02 0.02 70 1008.2
20260904225019 82 263 0.0 0.0 0.00 0.00 0.02 71 1008.3
20260904224939 82 263 0.0 0.0 0.00 0.00 0.02 71 1008.3
20260904224928 82 263 0.0 0.0 0.00 0.00 0.02 71 1008.3
20260904224718 82 263 0.0 0.0 0.00 0.00 0.02 71 1008.3
20260904224618 82 263 0.0 0.0 0.00 0.00 0.02 71 1008.3
20260904224530 82 263 0.0 0.0 0.00 0.02 0.02 71 1008.2
20260904224518 82 263 0.0 0.0 0.00 0.00 0.02 71 1008.3
20260904224416 82 263 0.0 0.0 0.00 0.00 0.02 71 1008.3
20260904224329 82 263 0.0 0.0 0.00 0.00 0.02 72 1008.3
20260904224324 82 263 0.0 0.0 0.00 0.00 0.02 72 1008.4
20260904224115 82 263 0.0 0.0 0.00 0.00 0.02 72 1008.3
20260904224030 82 263 0.0 0.0 0.00 0.02 0.02 72 1008.2
20260904224015 82 263 0.0 0.0 0.00 0.00 0.02 72 1008.3
20260904223914 82 263 0.0 0.0 0.00 0.00 0.02 72 1008.3
20260904223812 82 263 0.0 0.0 0.00 0.00 0.02 72 1008.4
20260904223753 82 263 0.0 0.0 0.00 0.00 0.02 71 1008.4
20260904223748 82 263 0.0 0.0 0.00 0.00 0.02 71 1008.4
20260904223635 82 263 0.0 0.0 0.00 0.00 0.02 71 1008.4
20260904223530 82 263 0.0 0.0 0.00 0.02 0.02 71 1008.4
20260904223411 82 263 0.0 0.0 0.00 0.00 0.02 71 1008.5
20260904223323 82 263 0.0 0.0 0.00 0.00 0.02 69 1008.5
20260904223319 82 263 0.0 0.0 0.00 0.00 0.02 70 1008.5
20260904223109 82 263 0.0 0.0 0.00 0.00 0.02 69 1008.5
20260904223100 82 263 0.0 0.0 0.00 0.02 0.02 69 1008.4
20260904223025 82 263 0.0 0.0 0.00 0.00 0.02 69 1008.5
20260904223016 82 263 0.0 0.0 0.00 0.00 0.02 69 1008.5
20260904222904 82 263 0.0 0.0 0.00 0.00 0.02 69 1008.6
20260904222900 82 263 0.0 0.0 0.00 0.00 0.02 69 1008.5
20260904222853 82 263 0.0 0.0 0.00 0.00 0.02 69 1008.5
20260904222530 83 263 0.0 0.0 0.00 0.02 0.02 70 1008.4
20260904222522 83 263 0.0 0.0 0.00 0.00 0.02 70 1008.5
20260904222512 83 263 0.0 0.0 0.00 0.00 0.02 70 1008.5
20260904222306 83 263 0.0 0.0 0.00 0.00 0.02 70 1008.6
20260904222205 83 263 0.0 0.0 0.00 0.00 0.02 69 1008.6
20260904222131 83 263 0.0 0.0 0.00 0.00 0.02 68 1008.5
20260904222105 83 263 0.0 0.0 0.00 0.00 0.02 69 1008.5
20260904222030 83 263 0.0 0.0 0.00 0.02 0.02 68 1008.4
20260904222018 83 263 0.0 0.0 0.00 0.00 0.02 68 1008.5
20260904221904 83 263 0.0 0.0 0.00 0.00 0.02 68 1008.5
20260904221805 83 263 0.0 0.0 0.00 0.00 0.02 68 1008.5
20260904221758 83 266 0.0 0.0 0.00 0.00 0.02 68 1008.6
20260904221754 83 267 0.0 0.0 0.00 0.00 0.02 68 1008.6
20260904221747 83 263 0.0 0.0 0.00 0.00 0.02 68 1008.5
20260904221600 83 267 0.0 0.0 0.00 0.02 0.02 68 1008.5
20260904221525 83 267 0.0 0.0 0.00 0.00 0.02 68 1008.6
20260904221515 83 267 0.0 0.0 0.00 0.00 0.02 68 1008.6
20260904221159 83 267 0.0 0.0 0.00 0.00 0.02 68 1008.6
20260904221059 83 267 0.0 0.0 0.00 0.00 0.02 68 1008.6
20260904221030 83 267 0.0 0.0 0.00 0.02 0.02 68 1008.5
20260904220959 83 267 0.0 0.0 0.00 0.00 0.02 68 1008.6
20260904220908 83 267 0.0 0.0 0.00 0.00 0.02 69 1008.6
20260904220858 83 267 0.0 0.0 0.00 0.00 0.02 69 1008.5
20260904220758 83 267 0.0 0.0 0.00 0.00 0.02 69 1008.5
20260904220657 83 267 0.0 0.0 0.00 0.00 0.02 68 1008.5
20260904220557 83 267 0.0 0.0 0.00 0.00 0.02 68 1008.5
20260904220531 83 267 0.0 0.0 0.00 0.02 0.02 68 1008.4
20260904220457 83 267 0.0 0.0 0.00 0.00 0.02 69 1008.5
20260904220407 83 267 0.0 0.0 0.00 0.00 0.02 67 1008.5
20260904220356 83 267 0.0 0.0 0.00 0.00 0.02 67 1008.5
20260904220256 83 266 0.0 0.0 0.00 0.00 0.02 68 1008.5
20260904220156 83 266 0.0 0.0 0.00 0.00 0.02 68 1008.5
20260904220054 83 266 0.0 0.0 0.00 0.00 0.02 66 1008.5
20260904220030 83 266 0.0 0.0 0.00 0.02 0.02 67 1008.3
20260904215955 83 266 0.0 0.0 0.00 0.00 0.02 67 1008.4
20260904215923 83 266 0.0 0.0 0.00 0.00 0.02 66 1008.4
20260904215917 83 266 0.0 0.0 0.00 0.00 0.02 66 1008.5
20260904215803 83 266 0.0 0.0 0.00 0.00 0.02 66 1008.5
20260904215553 83 266 0.0 0.0 0.00 0.00 0.02 66 1008.4
20260904215530 84 266 0.0 0.0 0.00 0.02 0.02 66 1008.3
20260904215513 83 266 0.0 0.0 0.00 0.00 0.02 66 1008.5
20260904215500 83 266 0.0 0.0 0.00 0.00 0.02 66 1008.4
20260904215251 83 266 0.0 0.0 0.00 0.00 0.02 66 1008.5
20260904215206 84 266 0.0 0.0 0.00 0.00 0.02 66 1008.5
20260904215201 84 266 0.0 0.0 0.00 0.00 0.02 66 1008.5
20260904215045 84 266 0.0 0.0 0.00 0.02 0.02 66 1008.4
20260904214950 84 266 0.0 0.0 0.00 0.00 0.02 66 1008.5
20260904214906 84 266 0.0 0.0 0.00 0.00 0.02 66 1008.5
20260904214851 84 266 0.0 0.0 0.00 0.00 0.02 66 1008.5
20260904214750 84 266 0.0 0.0 0.00 0.00 0.02 66 1008.6
20260904214650 84 266 0.0 0.0 0.00 0.00 0.02 66 1008.5
20260904214549 84 266 0.0 0.0 0.00 0.00 0.02 65 1008.6
20260904214530 84 266 0.0 0.0 0.00 0.02 0.02 65 1008.5
20260904214448 84 266 0.0 0.0 0.00 0.00 0.02 65 1008.6
20260904214405 84 266 0.0 0.0 0.00 0.00 0.02 65 1008.6
20260904214348 84 266 0.0 0.0 0.00 0.00 0.02 65 1008.6
20260904214248 84 266 0.0 0.0 0.00 0.00 0.02 65 1008.6
20260904214146 84 266 0.0 0.0 0.00 0.00 0.02 64 1008.6
20260904214046 84 266 0.0 0.0 0.00 0.00 0.02 64 1008.6
20260904214030 84 266 0.0 0.0 0.00 0.02 0.02 64 1008.4
20260904213946 84 266 0.0 0.0 0.00 0.00 0.02 64 1008.5
20260904213906 84 266 0.0 0.0 0.00 0.00 0.02 64 1008.6
20260904213900 84 266 0.0 0.0 0.00 0.00 0.02 64 1008.6
20260904213855 84 266 0.0 0.0 0.00 0.00 0.02 64 1008.6
20260904213643 84 266 0.0 0.0 0.00 0.00 0.02 64 1008.6
20260904213542 84 266 0.0 0.0 0.00 0.00 0.02 64 1008.5
20260904213530 84 266 0.0 0.0 0.00 0.02 0.02 64 1008.5
20260904213441 84 265 0.0 0.0 0.00 0.00 0.02 64 1008.6
20260904213405 84 265 0.0 0.0 0.00 0.00 0.02 65 1008.6
20260904213341 84 265 0.0 0.0 0.00 0.00 0.02 65 1008.6
20260904213241 84 265 0.0 0.0 0.00 0.00 0.02 64 1008.6
20260904213140 84 268 0.0 0.0 0.00 0.00 0.02 64 1008.6
20260904213040 85 268 0.0 0.0 0.00 0.00 0.02 64 1008.6
20260904213030 85 268 0.0 0.0 0.00 0.02 0.02 64 1008.5
20260904212940 85 268 0.0 0.0 0.00 0.00 0.02 63 1008.6
20260904212902 85 268 0.0 0.0 0.00 0.00 0.02 63 1008.6
20260904212839 85 268 0.0 0.0 0.00 0.00 0.02 63 1008.6
20260904212752 85 302 0.0 0.0 0.00 0.00 0.02 63 1008.6
20260904212747 85 268 0.0 0.0 0.00 0.00 0.02 62 1008.6
20260904212604 85 308 0.0 0.0 0.00 0.00 0.02 63 1008.6
20260904212531 85 308 0.0 0.0 0.00 0.02 0.02 63 1008.4
20260904212451 85 308 0.0 0.0 0.00 0.00 0.02 63 1008.5
20260904212442 85 308 0.0 0.0 0.00 0.00 0.02 63 1008.5
20260904212235 85 254 0.0 0.0 0.00 0.00 0.02 63 1008.5
20260904212135 85 254 0.0 0.0 0.00 0.00 0.02 62 1008.6
20260904212035 85 254 0.0 0.0 0.00 0.00 0.02 62 1008.6
20260904212030 85 254 0.0 0.0 0.00 0.02 0.02 62 1008.4
20260904211935 85 252 0.0 0.0 0.00 0.00 0.02 63 1008.5
20260904211900 85 246 0.0 0.0 0.00 0.00 0.02 63 1008.5
20260904211834 85 246 0.0 0.0 0.00 0.00 0.02 62 1008.5
20260904211734 85 245 0.0 0.0 0.00 0.00 0.02 62 1008.4
20260904211634 85 228 0.0 0.0 0.00 0.00 0.02 62 1008.4
20260904211601 85 228 0.0 0.0 0.00 0.00 0.02 62 1008.4
20260904211530 85 228 0.0 0.0 0.00 0.02 0.02 61 1008.3
20260904211448 85 228 0.0 0.0 0.00 0.00 0.02 61 1008.4
20260904211440 85 220 0.0 0.0 0.00 0.00 0.02 61 1008.4
20260904211233 85 271 0.0 0.0 0.00 0.00 0.02 61 1008.4
20260904211132 85 227 0.0 0.0 0.00 0.00 0.02 61 1008.4
20260904211032 85 355 0.0 0.0 0.00 0.00 0.02 62 1008.5
20260904211030 86 355 0.0 0.0 0.00 0.02 0.02 62 1008.5
20260904210932 85 355 0.0 0.0 0.00 0.00 0.02 62 1008.5
20260904210858 85 355 0.0 0.0 0.00 0.00 0.02 61 1008.5
20260904210831 85 355 0.0 0.0 0.00 0.00 0.02 61 1008.5
20260904210731 86 266 0.0 0.0 0.00 0.00 0.02 61 1008.4
20260904210722 86 248 0.0 0.0 0.00 0.00 0.02 61 1008.3
20260904210631 86 267 0.0 0.0 0.00 0.00 0.02 61 1008.4
20260904210622 86 290 0.0 0.0 0.00 0.00 0.02 61 1008.3
20260904210615 86 267 0.0 0.0 0.00 0.00 0.02 61 1008.4
20260904210606 86 236 0.0 0.0 0.00 0.00 0.02 61 1008.3
20260904210530 86 267 0.0 0.0 0.00 0.02 0.02 61 1008.3
20260904210347 86 257 0.0 0.0 0.00 0.00 0.02 62 1008.3
20260904210030 86 260 0.0 0.0 0.00 0.02 0.02 61 1008.3
20260904205927 86 260 0.0 0.0 0.00 0.00 0.02 60 1008.3
20260904205858 86 260 0.0 0.0 0.00 0.00 0.02 60 1008.3
20260904205826 86 260 0.0 0.0 0.00 0.00 0.02 60 1008.3
20260904205725 86 260 0.0 0.0 0.00 0.00 0.02 59 1008.3
20260904205623 86 294 0.0 0.0 0.00 0.00 0.02 59 1008.4
20260904205538 86 266 0.0 0.0 0.00 0.00 0.02 59 1008.4
20260904205532 86 251 0.0 0.0 0.00 0.00 0.02 60 1008.3
20260904205530 86 252 0.0 0.0 0.00 0.02 0.02 60 1008.3
20260904205358 86 266 0.0 0.0 0.00 0.00 0.02 59 1008.3
20260904205345 86 268 0.0 0.0 0.00 0.00 0.02 59 1008.3
20260904205231 86 251 0.0 0.0 0.00 0.00 0.02 60 1008.3
20260904205036 87 288 0.0 0.0 0.00 0.00 0.02 59 1008.3
20260904205031 87 270 0.0 0.0 0.00 0.00 0.02 58 1008.3
20260904204856 87 268 0.0 0.0 0.00 0.00 0.02 59 1008.2
20260904204821 87 266 0.0 0.0 0.00 0.00 0.02 59 1008.2
20260904204753 87 295 0.0 0.0 0.00 0.00 0.02 58 1008.2
20260904204749 87 266 0.0 0.0 0.00 0.00 0.02 59 1008.2
20260904204745 87 289 0.0 0.0 0.00 0.00 0.02 60 1008.1
20260904204739 87 265 0.0 0.0 0.00 0.00 0.02 59 1008.3
20260904204530 87 265 0.0 0.0 0.00 0.02 0.02 59 1008.1
20260904204503 87 292 0.0 0.0 0.00 0.00 0.02 60 1008.1
20260904204333 87 319 0.0 0.0 0.00 0.00 0.02 58 1008.1
20260904204328 87 317 0.0 0.0 0.00 0.00 0.02 61 1008.1
20260904204119 87 320 0.0 0.0 0.00 0.00 0.02 59 1008.1
20260904204045 87 320 0.0 0.0 0.00 0.02 0.02 59 1008.2
20260904204018 87 320 0.0 0.0 0.00 0.00 0.02 59 1008.2
20260904203917 87 320 0.0 0.0 0.00 0.00 0.02 58 1008.2
20260904203856 87 320 0.0 0.0 0.00 0.00 0.02 58 1008.2
20260904203817 87 320 0.0 0.0 0.00 0.00 0.02 57 1008.2
20260904203716 87 320 0.0 0.0 0.00 0.00 0.02 57 1008.2
20260904203616 87 311 0.0 0.0 0.00 0.00 0.02 57 1008.1
20260904203545 87 311 0.0 0.0 0.00 0.02 0.02 58 1008.1
20260904203516 87 311 0.0 0.0 0.00 0.00 0.02 58 1008.1
20260904203443 87 329 0.0 0.0 0.00 0.00 0.02 59 1008.1
20260904203436 87 233 0.0 0.0 0.00 0.00 0.02 59 1008.0
20260904203324 87 295 0.0 0.0 0.00 0.00 0.02 59 1008.0
20260904203115 87 270 0.0 0.0 0.00 0.00 0.02 58 1008.0
20260904203030 87 270 0.0 0.0 0.00 0.02 0.02 59 1008.0
20260904203014 87 270 0.0 0.0 0.00 0.00 0.02 58 1008.0
20260904202914 87 269 0.0 0.0 0.00 0.00 0.02 59 1008.0
20260904202828 87 269 0.0 0.0 0.00 0.00 0.02 58 1008.2
20260904202822 87 269 0.0 0.0 0.00 0.00 0.02 59 1008.1
20260904202613 87 269 0.0 0.0 0.00 0.00 0.02 58 1008.2
20260904202530 87 269 0.0 0.0 0.00 0.02 0.02 57 1008.2
20260904202512 87 268 0.0 0.0 0.00 0.00 0.02 57 1008.3
20260904202412 87 278 0.0 0.0 0.00 0.00 0.02 58 1008.2
20260904202351 87 278 0.0 0.0 0.00 0.00 0.02 58 1008.2
20260904202313 87 277 0.0 0.0 0.00 0.00 0.02 57 1008.2
20260904202225 87 296 0.0 0.0 0.00 0.00 0.02 58 1008.3
20260904202220 87 279 0.0 0.0 0.00 0.00 0.02 58 1008.2
20260904202030 87 284 0.0 0.0 0.00 0.02 0.02 59 1008.3
20260904202010 87 284 0.0 0.0 0.00 0.00 0.02 59 1008.3
20260904201910 87 285 0.0 0.0 0.00 0.00 0.02 57 1008.3
20260904201850 87 285 0.0 0.0 0.00 0.00 0.02 58 1008.3
20260904201810 87 321 0.0 0.0 0.00 0.00 0.02 59 1008.3
20260904201709 87 267 0.0 0.0 0.00 0.00 0.02 59 1008.3
20260904201610 87 263 0.0 0.0 0.00 0.00 0.02 60 1008.3
20260904201545 87 292 0.0 0.0 0.00 0.02 0.02 61 1008.3
20260904201508 87 292 0.0 0.0 0.00 0.00 0.02 61 1008.3
20260904201408 87 292 0.0 0.0 0.00 0.00 0.02 61 1008.3
20260904201348 87 292 0.0 0.0 0.00 0.00 0.02 61 1008.3
20260904201308 87 292 0.0 0.0 0.00 0.00 0.02 62 1008.3
20260904201207 87 292 0.0 0.0 0.00 0.00 0.02 62 1008.3
20260904201106 87 292 0.0 0.0 0.00 0.00 0.02 60 1008.4
20260904201045 87 292 0.0 0.0 0.00 0.02 0.02 61 1008.4
20260904201005 87 292 0.0 0.0 0.00 0.00 0.02 61 1008.4
20260904200905 87 292 0.0 0.0 0.00 0.00 0.02 60 1008.5
20260904200849 87 292 0.0 0.0 0.00 0.00 0.02 61 1008.5
20260904200804 87 292 0.0 0.0 0.00 0.00 0.02 61 1008.5
20260904200706 87 292 0.0 0.0 0.00 0.00 0.02 60 1008.5
20260904200659 87 309 0.0 0.0 0.00 0.00 0.02 59 1008.5
20260904200655 87 271 0.0 0.0 0.00 0.00 0.02 60 1008.6
20260904200651 87 240 0.0 0.0 0.00 0.00 0.02 60 1008.6
20260904200644 87 295 0.0 0.0 0.00 0.00 0.02 59 1008.5
20260904200635 87 296 0.0 0.0 0.00 0.00 0.02 59 1008.6
20260904200530 87 296 0.0 0.0 0.00 0.02 0.02 59 1008.6
20260904200118 87 291 0.0 0.0 0.00 0.00 0.02 59 1008.6
20260904200113 87 246 0.0 0.0 0.00 0.00 0.02 58 1008.7
20260904200032 87 278 0.0 0.0 0.00 0.02 0.02 59 1008.6
20260904195844 87 261 0.0 0.0 0.00 0.00 0.02 60 1008.6
20260904195759 87 264 0.0 0.0 0.00 0.00 0.02 60 1008.6
20260904195659 87 305 0.0 0.0 0.00 0.00 0.02 60 1008.5
20260904195652 87 266 0.0 0.0 0.00 0.00 0.02 60 1008.5
20260904195645 87 265 0.0 0.0 0.00 0.00 0.02 61 1008.6
20260904195530 87 265 0.0 0.0 0.00 0.02 0.02 60 1008.5
20260904195424 87 261 0.0 0.0 0.00 0.00 0.02 60 1008.6
20260904195419 87 266 0.0 0.0 0.00 0.00 0.02 59 1008.6
20260904195412 87 266 0.0 0.0 0.00 0.00 0.02 59 1008.6
20260904195054 87 261 0.0 0.0 0.00 0.00 0.02 61 1008.6
20260904195030 87 261 0.0 0.0 0.00 0.02 0.02 61 1008.6
20260904194953 87 261 0.0 0.0 0.00 0.00 0.02 60 1008.6
20260904194853 87 261 0.0 0.0 0.00 0.00 0.02 60 1008.6
20260904194840 87 261 0.0 0.0 0.00 0.00 0.02 60 1008.6
20260904194752 87 261 0.0 0.0 0.00 0.00 0.02 59 1008.7
20260904194652 87 264 0.0 0.0 0.00 0.00 0.02 60 1008.7
20260904194605 87 282 0.0 0.0 0.00 0.00 0.02 61 1008.7
20260904194600 87 273 0.0 0.0 0.00 0.00 0.02 60 1008.8
20260904194530 87 282 0.0 0.0 0.00 0.02 0.02 60 1008.7
20260904194418 87 282 0.0 0.0 0.00 0.00 0.02 61 1008.7
20260904194412 87 283 0.0 0.0 0.00 0.00 0.02 61 1008.7
20260904194256 87 283 0.0 0.0 0.00 0.00 0.02 58 1008.8
20260904194251 87 283 0.0 0.0 0.00 0.00 0.02 60 1008.8
20260904194242 87 283 0.0 0.0 0.00 0.00 0.02 59 1008.8
20260904194124 87 285 0.0 0.0 0.00 0.00 0.02 58 1008.8
20260904194030 87 285 0.0 0.0 0.00 0.02 0.02 59 1008.8
20260904193756 87 298 0.0 0.0 0.00 0.00 0.02 57 1008.8
20260904193559 87 306 0.0 0.0 0.00 0.00 0.02 59 1008.9
20260904193546 87 323 0.0 0.0 0.00 0.00 0.02 59 1008.9
20260904193530 88 325 0.0 0.0 0.00 0.02 0.02 59 1008.9
20260904193456 87 325 0.0 0.0 0.00 0.00 0.02 59 1008.9
20260904193446 87 306 0.0 0.0 0.00 0.00 0.02 59 1008.9
20260904193301 87 307 0.0 0.0 0.00 0.00 0.02 58 1009.0
20260904193256 87 306 0.0 0.0 0.00 0.00 0.02 59 1009.0
20260904193132 88 314 0.0 0.0 0.00 0.00 0.02 59 1009.1
20260904193128 88 315 0.0 0.0 0.00 0.00 0.02 58 1009.1
20260904193124 88 294 0.0 0.0 0.00 0.00 0.02 60 1009.1
20260904193117 87 309 0.0 0.0 0.00 0.00 0.02 58 1009.1
20260904193108 88 283 0.0 0.0 0.00 0.00 0.02 58 1009.1
20260904193031 88 288 0.0 0.0 0.00 0.02 0.02 58 1009.1
20260904192644 87 262 0.0 0.0 0.00 0.00 0.02 59 1009.1
20260904192544 87 261 0.0 0.0 0.00 0.00 0.02 59 1009.0
20260904192530 88 302 0.0 0.0 0.00 0.02 0.02 57 1009.0
20260904192517 87 316 0.0 0.0 0.00 0.00 0.02 58 1009.0
20260904192511 87 321 0.0 0.0 0.00 0.00 0.02 59 1009.0
20260904192506 87 302 0.0 0.0 0.00 0.00 0.02 57 1009.0
20260904192350 87 316 0.0 0.0 0.00 0.00 0.02 58 1009.0
20260904192156 87 316 0.0 0.0 0.00 0.00 0.02 59 1009.0
20260904192150 87 253 0.0 0.0 0.00 0.00 0.02 59 1009.0
20260904192030 88 300 0.0 0.0 0.00 0.02 0.02 59 1009.1
20260904191959 87 303 0.0 0.0 0.00 0.00 0.02 58 1009.1
20260904191954 87 301 0.0 0.0 0.00 0.00 0.02 59 1009.1
20260904191838 87 303 0.0 0.0 0.00 0.00 0.02 58 1009.1
20260904191740 87 303 0.0 0.0 0.00 0.00 0.02 58 1009.1
20260904191640 87 321 0.0 0.0 0.00 0.00 0.02 57 1009.0
20260904191607 88 267 0.0 0.0 0.00 0.00 0.02 57 1009.0
20260904191530 88 267 0.0 0.0 0.00 0.02 0.02 57 1009.0
20260904191454 88 326 0.0 0.0 0.00 0.00 0.02 57 1009.0
20260904191400 88 0 0.0 0.0 0.00 0.02 0.02 59 1009.1
20260904191342 88 260 0.0 0.0 0.00 0.00 0.02 59 1008.3
20260904191332 88 0 0.0 0.0 0.00 0.02 0.02 60 1009.3
20260904191301 86 0 0.0 0.0 0.00 0.02 0.02 62 1005.0
20260904191157 88 260 0.0 0.0 0.00 0.00 0.02 58 1008.3
20260904191056 87 271 0.0 0.0 0.00 0.00 0.02 58 1008.3
20260904190953 87 284 0.0 0.0 0.00 0.00 0.02 58 1008.3
20260904190853 87 271 0.0 0.0 0.00 0.00 0.02 57 1008.3
20260904190817 87 271 0.0 0.0 0.00 0.00 0.02 57 1008.3
20260904190754 87 271 0.0 0.0 0.00 0.00 0.02 58 1008.3
20260904190653 87 254 0.0 0.0 0.00 0.00 0.02 57 1008.4
20260904190551 87 320 0.0 0.0 0.00 0.00 0.02 59 1008.4
20260904190452 87 259 0.0 0.0 0.00 0.00 0.02 59 1008.4
20260904190347 88 323 0.0 0.0 0.00 0.00 0.02 61 1008.4
20260904190312 88 321 0.0 0.0 0.00 0.00 0.02 61 1008.4
20260904190247 88 323 0.0 0.0 0.00 0.00 0.02 62 1008.4
20260904190158 88 323 0.0 0.0 0.00 0.00 0.02 59 1008.5
20260904190154 88 323 0.0 0.0 0.00 0.00 0.02 59 1008.4
20260904185945 88 257 0.0 0.0 0.00 0.00 0.02 59 1008.5
20260904185845 88 220 0.0 0.0 0.00 0.00 0.02 59 1008.5
20260904185812 88 252 0.0 0.0 0.00 0.00 0.02 59 1008.5
20260904185745 88 289 0.0 0.0 0.00 0.00 0.02 58 1008.6
20260904185645 88 0 0.0 0.0 0.00 0.00 0.02 60 1008.6
20260904185629 88 288 0.0 0.0 0.00 0.00 0.02 58 1008.6
20260904185622 88 292 0.0 0.0 0.00 0.00 0.02 59 1008.6
20260904185509 88 9 0.0 0.0 0.00 0.00 0.02 60 1008.6
20260904185500 88 246 0.0 0.0 0.00 0.00 0.02 58 1008.6
20260904185141 87 327 0.0 0.0 0.00 0.00 0.02 60 1008.7
20260904185041 87 235 0.0 0.0 0.00 0.00 0.02 60 1008.7
20260904184941 87 271 0.0 0.0 0.00 0.00 0.02 61 1008.7
20260904184842 87 264 0.0 0.0 0.00 0.00 0.02 61 1008.7
20260904184812 87 264 0.0 0.0 0.00 0.00 0.02 62 1008.7
20260904184748 87 249 0.0 0.0 0.00 0.00 0.02 64 1008.7
20260904184744 87 250 0.0 0.0 0.00 0.00 0.02 62 1008.7
20260904184534 87 292 0.0 0.0 0.00 0.00 0.02 64 1008.7
20260904184434 87 292 0.0 0.0 0.00 0.00 0.02 64 1008.7
20260904184352 86 305 0.0 0.0 0.00 0.00 0.02 63 1008.7
20260904184348 87 304 0.0 0.0 0.00 0.00 0.02 64 1008.7
20260904184340 87 304 0.0 0.0 0.00 0.00 0.02 65 1008.7
20260904184133 86 305 0.0 0.0 0.00 0.00 0.02 64 1008.7
20260904184033 86 305 0.0 0.0 0.00 0.00 0.02 63 1008.7
20260904183929 86 306 0.0 0.0 0.00 0.00 0.02 63 1008.7
20260904183812 86 303 0.0 0.0 0.00 0.00 0.02 62 1008.7
20260904183729 86 304 0.0 0.0 0.00 0.00 0.02 62 1008.7
20260904183629 86 303 0.0 0.0 0.00 0.00 0.02 63 1008.7
20260904183544 86 304 0.0 0.0 0.00 0.00 0.02 63 1008.7
20260904183538 86 304 0.0 0.0 0.00 0.00 0.02 62 1008.7
20260904183329 86 313 0.0 0.0 0.00 0.00 0.02 62 1008.7
20260904183312 86 305 0.0 0.0 0.00 0.00 0.02 62 1008.7
20260904183230 86 306 0.0 0.0 0.00 0.00 0.02 63 1008.7
20260904183131 86 308 0.0 0.0 0.00 0.00 0.02 63 1008.8
20260904183042 86 262 0.0 0.0 0.00 0.00 0.02 63 1008.7
20260904183038 86 309 0.0 0.0 0.00 0.00 0.02 62 1008.7
20260904182812 86 261 0.0 0.0 0.00 0.00 0.02 62 1008.7
20260904182730 86 261 0.0 0.0 0.00 0.00 0.02 62 1008.7
20260904182629 86 261 0.0 0.0 0.00 0.00 0.02 63 1008.8
20260904182529 86 260 0.0 0.0 0.00 0.00 0.02 63 1008.8
20260904182429 86 261 0.0 0.0 0.00 0.00 0.02 63 1008.8
20260904182329 86 264 0.0 0.0 0.00 0.00 0.02 61 1008.8
20260904182229 86 269 0.0 0.0 0.00 0.00 0.02 61 1008.9
20260904182129 86 302 0.0 0.0 0.00 0.00 0.02 60 1008.9
20260904182039 86 263 0.0 0.0 0.00 0.00 0.02 59 1008.8
20260904182034 86 265 0.0 0.0 0.00 0.00 0.02 61 1008.8
20260904181825 86 263 0.0 0.0 0.00 0.00 0.02 60 1008.9
20260904181811 86 262 0.0 0.0 0.00 0.00 0.02 60 1008.9
20260904181739 87 261 0.0 0.0 0.00 0.00 0.02 60 1008.9
20260904181734 86 262 0.0 0.0 0.00 0.00 0.02 60 1008.8
20260904181525 87 263 0.0 0.0 0.00 0.00 0.02 60 1008.8
20260904181425 87 261 0.0 0.0 0.00 0.00 0.02 60 1008.8
20260904181312 87 269 0.0 0.0 0.00 0.00 0.02 59 1008.8
20260904181225 87 269 0.0 0.0 0.00 0.00 0.02 60 1008.8
20260904181126 87 269 0.0 0.0 0.00 0.00 0.02 61 1008.7
20260904181025 87 240 0.0 0.0 0.00 0.00 0.02 60 1008.8
20260904180925 87 175 0.0 0.0 0.00 0.00 0.02 61 1008.8
20260904180845 87 257 0.0 0.0 0.00 0.00 0.02 60 1008.7
20260904180840 87 259 0.0 0.0 0.00 0.00 0.02 60 1008.7
20260904180832 87 257 0.0 0.0 0.00 0.00 0.02 60 1008.7
20260904180625 87 258 0.0 0.0 0.00 0.00 0.02 61 1008.7
20260904180525 87 250 0.0 0.0 0.00 0.00 0.02 59 1008.8
20260904180439 87 225 0.0 0.0 0.00 0.00 0.02 63 1008.8
20260904180434 87 273 0.0 0.0 0.00 0.00 0.02 61 1008.8
20260904180312 87 225 0.0 0.0 0.00 0.00 0.02 62 1008.8
20260904180226 87 225 0.0 0.0 0.00 0.00 0.02 62 1008.9
20260904180121 87 225 0.0 0.0 0.00 0.00 0.02 64 1008.9
20260904180021 87 277 0.0 0.0 0.00 0.00 0.02 62 1008.9
20260904175921 87 278 0.0 0.0 0.00 0.00 0.02 61 1008.8
20260904175811 87 289 0.0 0.0 0.00 0.00 0.02 60 1008.8
20260904175721 87 268 0.0 0.0 0.00 0.00 0.02 61 1008.9
20260904175621 87 268 0.0 0.0 0.00 0.00 0.02 61 1008.9
20260904175521 87 299 0.0 0.0 0.00 0.00 0.02 62 1009.0
20260904175421 87 287 0.0 0.0 0.00 0.00 0.02 60 1008.9
20260904175312 87 287 0.0 0.0 0.00 0.00 0.02 59 1008.9
20260904175223 87 280 0.0 0.0 0.00 0.00 0.02 59 1008.8
20260904175122 87 240 0.0 0.0 0.00 0.00 0.02 59 1008.8
20260904175022 87 290 0.0 0.0 0.00 0.00 0.02 60 1008.8
20260904175004 87 286 0.0 0.0 0.00 0.00 0.02 61 1008.8
20260904174958 87 287 0.0 0.0 0.00 0.00 0.02 60 1008.7
20260904174841 87 287 0.0 0.0 0.00 0.00 0.02 61 1008.8
20260904174730 87 252 0.0 0.0 0.00 0.00 0.02 60 1008.7
20260904174521 87 279 0.0 0.0 0.00 0.00 0.02 60 1008.7
20260904174421 87 279 0.0 0.0 0.00 0.00 0.02 60 1008.7
20260904174311 87 279 0.0 0.0 0.00 0.00 0.02 61 1008.7
20260904174217 87 268 0.0 0.0 0.00 0.00 0.02 61 1008.8
20260904174117 87 273 0.0 0.0 0.00 0.00 0.02 60 1008.7
20260904174015 87 270 0.0 0.0 0.00 0.00 0.02 61 1008.8
20260904173915 87 298 0.0 0.0 0.00 0.00 0.02 60 1008.8
20260904173814 87 298 0.0 0.0 0.00 0.00 0.02 60 1008.8
20260904173708 87 299 0.0 0.0 0.00 0.00 0.02 61 1008.7
20260904173608 87 300 0.0 0.0 0.00 0.00 0.02 61 1008.7
20260904173507 87 302 0.0 0.0 0.00 0.00 0.02 62 1008.8
20260904173407 87 302 0.0 0.0 0.00 0.00 0.02 61 1008.8
20260904173307 87 310 0.0 0.0 0.00 0.00 0.02 61 1008.7
20260904173228 87 303 0.0 0.0 0.00 0.00 0.02 62 1008.7
20260904173115 87 246 0.0 0.0 0.00 0.00 0.02 61 1008.7
20260904172903 87 259 0.0 0.0 0.00 0.00 0.02 59 1008.8
20260904172801 87 235 0.0 0.0 0.00 0.00 0.02 59 1008.7
20260904172657 87 215 0.0 0.0 0.00 0.00 0.02 60 1008.8
20260904172610 87 236 0.0 0.0 0.00 0.00 0.02 60 1008.8
20260904172605 87 240 0.0 0.0 0.00 0.00 0.02 61 1008.8
20260904172355 87 214 0.0 0.0 0.00 0.00 0.02 62 1008.7
20260904172255 87 266 0.0 0.0 0.00 0.00 0.02 61 1008.6
20260904172149 87 274 0.0 0.0 0.00 0.00 0.02 61 1008.7
20260904172049 87 198 0.0 0.0 0.00 0.00 0.02 61 1008.8
20260904171948 87 317 0.0 0.0 0.00 0.00 0.02 60 1008.8
20260904171849 87 264 0.0 0.0 0.00 0.00 0.02 60 1008.9
20260904171749 87 240 0.0 0.0 0.00 0.00 0.02 60 1008.9
20260904171702 87 259 0.0 0.0 0.00 0.00 0.02 62 1009.0
20260904171656 87 247 0.0 0.0 0.00 0.00 0.02 61 1008.9
20260904171517 87 251 0.0 0.0 0.00 0.00 0.02 64 1009.0
20260904171512 87 237 0.0 0.0 0.00 0.00 0.02 62 1009.0
20260904171507 87 242 0.0 0.0 0.00 0.00 0.02 62 1009.0
20260904171245 87 237 0.0 0.0 0.00 0.00 0.02 62 1009.0
20260904171138 87 281 0.0 0.0 0.00 0.00 0.02 62 1008.9
20260904171038 87 246 0.0 0.0 0.00 0.00 0.02 63 1008.9
20260904170938 86 266 0.0 0.0 0.00 0.00 0.02 62 1008.8
20260904170838 86 281 0.0 0.0 0.00 0.00 0.02 62 1008.8
20260904170755 86 271 0.0 0.0 0.00 0.00 0.02 63 1008.8
20260904170641 86 271 0.0 0.0 0.00 0.00 0.02 64 1008.8
20260904170504 86 279 0.0 0.0 0.00 0.00 0.02 64 1009.0
20260904170500 86 279 0.0 0.0 0.00 0.00 0.02 64 1009.0
20260904170455 86 252 0.0 0.0 0.00 0.00 0.02 65 1008.9
20260904170337 86 279 0.0 0.0 0.00 0.00 0.02 64 1009.0
20260904170124 86 290 0.0 0.0 0.00 0.00 0.02 63 1009.0
20260904170025 86 292 0.0 0.0 0.00 0.00 0.02 63 1008.9
20260904165926 86 294 0.0 0.0 0.00 0.00 0.02 62 1009.1
20260904165826 86 294 0.0 0.0 0.00 0.00 0.02 62 1009.0
20260904165727 86 294 0.0 0.0 0.00 0.00 0.02 62 1009.1
20260904165651 86 301 0.0 0.0 0.00 0.00 0.02 62 1009.1
20260904165538 86 279 0.0 0.0 0.00 0.00 0.02 62 1008.8
20260904165533 86 321 0.0 0.0 0.00 0.00 0.02 62 1008.9
20260904165345 86 305 0.0 0.0 0.00 0.00 0.02 62 1008.7
20260904165341 86 266 0.0 0.0 0.00 0.00 0.02 62 1008.8
20260904165332 86 279 0.0 0.0 0.00 0.00 0.02 62 1008.8
20260904165031 86 295 0.0 0.0 0.00 0.00 0.02 62 1008.8
20260904165027 86 305 0.0 0.0 0.00 0.00 0.02 62 1008.7
20260904164815 86 294 0.0 0.0 0.00 0.00 0.02 62 1008.7
20260904164714 85 315 0.0 0.0 0.00 0.00 0.02 63 1008.7
20260904164609 85 276 0.0 0.0 0.00 0.00 0.02 63 1008.6
20260904164509 85 277 0.0 0.0 0.00 0.00 0.02 63 1008.6
20260904164409 85 335 0.0 0.0 0.00 0.00 0.02 63 1008.7
20260904164308 85 288 0.0 0.0 0.00 0.00 0.02 63 1008.8
20260904164211 85 314 0.0 0.0 0.00 0.00 0.02 65 1008.8
20260904164204 85 304 0.0 0.0 0.00 0.00 0.02 65 1008.8
20260904164109 85 294 0.0 0.0 0.00 0.00 0.02 65 1008.8
20260904164009 85 279 0.0 0.0 0.00 0.00 0.02 65 1008.9
20260904163907 85 279 0.0 0.0 0.00 0.00 0.02 65 1008.9
20260904163807 85 278 0.0 0.0 0.00 0.00 0.02 65 1008.9
20260904163707 85 312 0.0 0.0 0.00 0.00 0.02 64 1009.0
20260904163700 85 313 0.0 0.0 0.00 0.00 0.02 64 1009.0
20260904163621 85 263 0.0 0.0 0.00 0.00 0.02 66 1009.0
20260904163616 85 302 0.0 0.0 0.00 0.00 0.02 66 1009.0
20260904163406 85 263 0.0 0.0 0.00 0.00 0.02 64 1008.9
20260904163307 85 263 0.0 0.0 0.00 0.00 0.02 65 1008.9
20260904163207 85 264 0.0 0.0 0.00 0.00 0.02 64 1008.8
20260904163200 85 264 0.0 0.0 0.00 0.00 0.02 64 1008.8
20260904163108 85 264 0.0 0.0 0.00 0.00 0.02 64 1008.9
20260904163006 85 264 0.0 0.0 0.00 0.00 0.02 64 1008.9
20260904162906 85 254 0.0 0.0 0.00 0.00 0.02 65 1008.9
20260904162804 85 253 0.0 0.0 0.00 0.00 0.02 65 1009.1
20260904162700 85 253 0.0 0.0 0.00 0.00 0.02 65 1009.2
20260904162427 85 296 0.0 0.0 0.00 0.02 0.02 66 1009.3
20260904162322 85 304 0.0 0.0 0.00 0.02 0.02 64 1009.1
20260904162243 85 306 0.0 0.0 0.00 0.02 0.02 65 1008.9
20260904162234 85 306 0.0 0.0 0.00 0.02 0.02 65 1008.8
20260904162230 85 306 0.0 0.0 0.00 0.02 0.02 64 1008.9
20260904162033 85 306 0.0 0.0 0.00 0.02 0.02 65 1009.0
20260904162029 85 306 0.0 0.0 0.00 0.02 0.02 65 1008.9
20260904161816 85 306 0.0 0.0 0.00 0.02 0.02 64 1008.9
20260904161738 85 306 0.0 0.0 0.00 0.02 0.02 64 1009.0
20260904161715 85 306 0.0 0.0 0.00 0.02 0.02 63 1009.0
20260904161646 85 320 0.0 0.0 0.00 0.02 0.02 63 1009.2
20260904161640 85 307 0.0 0.0 0.00 0.02 0.02 62 1009.1
20260904161527 85 277 0.0 0.0 0.00 0.02 0.02 62 1009.2
20260904161231 86 286 0.0 0.0 0.00 0.02 0.02 63 1009.0
20260904161208 86 307 0.0 0.0 0.00 0.02 0.02 63 1008.8
20260904161109 86 307 0.0 0.0 0.00 0.02 0.02 62 1008.9
20260904161009 86 308 0.0 0.0 0.00 0.02 0.02 63 1008.8
20260904160908 86 307 0.0 0.0 0.00 0.02 0.02 63 1008.0
20260904160805 86 309 0.0 0.0 0.00 0.02 0.02 62 1008.4
20260904160726 86 323 0.0 0.0 0.00 0.02 0.02 62 1008.4
20260904160705 86 312 0.0 0.0 0.00 0.02 0.02 62 1006.8
20260904160605 86 323 0.0 0.0 0.00 0.02 0.02 63 1008.8
20260904160505 86 232 0.0 0.0 0.00 0.02 0.02 62 1008.8
20260904160403 86 306 0.0 0.0 0.00 0.02 0.02 63 1006.5
20260904160259 86 294 0.0 0.0 0.00 0.02 0.02 62 1007.3
20260904160220 86 288 0.0 0.0 0.00 0.02 0.02 63 1007.3
20260904160157 86 288 0.0 0.0 0.00 0.02 0.02 62 1008.6
20260904160056 86 355 0.0 0.0 0.00 0.02 0.02 62 1008.6
20260904160010 86 275 0.0 0.0 0.00 0.02 0.02 62 1008.7
20260904160006 86 114 0.0 0.0 0.00 0.02 0.02 62 1008.7
20260904155751 86 306 0.0 0.0 0.00 0.02 0.02 63 1008.8
20260904155714 86 336 0.0 0.0 0.00 0.02 0.02 63 1008.8
20260904155650 86 336 0.0 0.0 0.00 0.02 0.02 62 1008.9
20260904155551 86 336 0.0 0.0 0.00 0.02 0.02 63 1008.7
20260904155451 86 121 0.0 0.0 0.00 0.02 0.02 62 1005.9
20260904155350 86 302 0.0 0.0 0.00 0.02 0.02 62 1005.9
20260904155250 86 209 0.0 0.0 0.00 0.02 0.02 62 1008.9
20260904155209 86 208 0.0 0.0 0.00 0.02 0.02 62 1009.1
20260904155203 86 15 0.0 0.0 0.00 0.02 0.02 63 1009.0
20260904155158 86 208 0.0 0.0 0.00 0.02 0.02 62 1009.1
20260904154947 86 290 0.0 0.0 0.00 0.02 0.02 63 1006.6
20260904154844 86 290 0.0 0.0 0.00 0.02 0.02 63 1005.2
20260904154743 86 263 0.0 0.0 0.00 0.02 0.02 64 1005.0
20260904154709 86 275 0.0 0.0 0.00 0.02 0.02 62 1005.0
20260904154705 86 293 0.0 0.0 0.00 0.02 0.02 64 1004.9
20260904154659 86 293 0.0 0.0 0.00 0.02 0.02 64 1004.9
20260904154650 86 292 0.0 0.0 0.00 0.02 0.02 63 1005.0
20260904154429 86 309 0.0 0.0 0.00 0.02 0.02 61 1008.0
20260904154423 86 273 0.0 0.0 0.00 0.02 0.02 62 1006.6
20260904154132 86 291 0.0 0.0 0.00 0.02 0.02 62 1008.6
20260904154112 86 329 0.0 0.0 0.00 0.02 0.02 61 1004.6
20260904154108 86 298 0.0 0.0 0.00 0.02 0.02 62 1006.0
20260904154104 86 296 0.0 0.0 0.00 0.02 0.02 61 1004.4
20260904154058 86 262 0.0 0.0 0.00 0.02 0.02 61 1004.7
20260904153706 86 302 0.0 0.0 0.00 0.02 0.02 62 1004.1
20260904153644 86 61 0.0 0.0 0.00 0.02 0.02 62 1004.3
20260904153638 86 266 0.0 0.0 0.00 0.02 0.02 62 1004.1
20260904153429 86 52 0.0 0.0 0.00 0.02 0.02 62 1004.2
20260904153339 86 282 0.0 0.0 0.00 0.02 0.02 62 1004.1
20260904153333 86 315 0.0 0.0 0.00 0.02 0.02 62 1004.2
20260904153206 86 280 0.0 0.0 0.00 0.02 0.02 61 1004.0
20260904153125 86 330 0.0 0.0 0.00 0.02 0.02 61 1004.0
20260904153049 86 275 0.0 0.0 0.00 0.02 0.02 63 1004.1
20260904152935 85 265 0.0 0.0 0.00 0.02 0.02 62 1004.2
20260904152822 85 300 0.0 0.0 0.00 0.02 0.02 63 1004.0
20260904152812 85 311 0.0 0.0 0.00 0.02 0.02 62 1004.0
20260904152700 85 292 0.0 0.0 0.00 0.02 0.02 63 1004.2
20260904152654 85 323 0.0 0.0 0.00 0.02 0.02 62 1003.9
20260904152322 85 217 0.0 0.0 0.00 0.02 0.02 62 1004.5
20260904152206 86 272 0.0 0.0 0.00 0.02 0.02 62 1003.8
20260904152110 86 296 0.0 0.0 0.00 0.02 0.02 63 1003.8
20260904152011 85 271 0.0 0.0 0.00 0.02 0.02 63 1003.8
20260904151910 85 293 0.0 0.0 0.00 0.02 0.02 63 1003.8
20260904151810 85 308 0.0 0.0 0.00 0.02 0.02 63 1003.7
20260904151706 85 318 0.0 0.0 0.00 0.02 0.02 63 1003.6
20260904151611 85 321 0.0 0.0 0.00 0.02 0.02 63 1003.6
20260904151512 86 323 0.0 0.0 0.00 0.02 0.02 63 1003.7
20260904151411 86 308 0.0 0.0 0.00 0.02 0.02 63 1003.8
20260904151309 85 244 0.0 0.0 0.00 0.02 0.02 65 1003.7
20260904151212 85 244 0.0 0.0 0.00 0.02 0.02 65 1004.4
20260904151204 85 244 0.0 0.0 0.00 0.02 0.02 65 1004.2
20260904151108 85 243 0.0 0.0 0.00 0.02 0.02 65 1004.2
20260904151036 85 280 0.0 0.0 0.00 0.02 0.02 65 1004.8
20260904151031 85 290 0.0 0.0 0.00 0.02 0.02 65 1004.1
20260904151026 85 286 0.0 0.0 0.00 0.02 0.02 65 1004.2
20260904151018 85 286 0.0 0.0 0.00 0.02 0.02 65 1004.3
20260904150708 85 288 0.0 0.0 0.00 0.02 0.02 64 1004.1
20260904150606 85 244 0.0 0.0 0.00 0.02 0.02 65 1004.1
20260904150523 84 253 0.0 0.0 0.00 0.02 0.02 65 1004.1
20260904150519 85 269 0.0 0.0 0.00 0.02 0.02 65 1004.2
20260904150514 85 270 0.0 0.0 0.00 0.02 0.02 65 1004.1
20260904150319 84 277 0.0 0.0 0.00 0.02 0.02 65 1004.0
20260904150204 84 265 0.0 0.0 0.00 0.02 0.02 67 1004.2
20260904150104 84 267 0.0 0.0 0.00 0.02 0.02 66 1004.4
20260904150019 84 259 0.0 0.0 0.00 0.02 0.02 66 1004.5
20260904150003 84 259 0.0 0.0 0.00 0.02 0.02 66 1004.4
20260904145904 84 294 0.0 0.0 0.00 0.02 0.02 66 1004.2
20260904145804 84 261 0.0 0.0 0.00 0.02 0.02 65 1004.1
20260904145708 84 289 0.0 0.0 0.00 0.02 0.02 66 1004.1
20260904145703 84 302 0.0 0.0 0.00 0.02 0.02 66 1004.1
20260904145604 84 317 0.0 0.0 0.00 0.02 0.02 68 1004.1
20260904145518 84 303 0.0 0.0 0.00 0.02 0.02 69 1005.5
20260904145503 84 301 0.0 0.0 0.00 0.02 0.02 69 1005.5
20260904145427 84 263 0.0 0.0 0.00 0.02 0.02 69 1005.5
20260904145314 83 263 0.0 0.0 0.00 0.02 0.02 69 1004.9
20260904145306 83 263 0.0 0.0 0.00 0.02 0.02 68 1004.9
20260904145059 83 274 0.0 0.0 0.00 0.02 0.02 68 1004.3
20260904145019 83 313 0.0 0.0 0.00 0.02 0.02 69 1004.2
20260904144959 83 313 0.0 0.0 0.00 0.02 0.02 69 1004.2
20260904144859 83 273 0.0 0.0 0.00 0.02 0.02 68 1004.2
20260904144823 83 296 0.0 0.0 0.00 0.02 0.02 68 1004.2
20260904144818 83 340 0.0 0.0 0.00 0.02 0.02 69 1004.5
20260904144813 83 301 0.0 0.0 0.00 0.02 0.02 69 1004.3
20260904144804 83 5 0.0 0.0 0.00 0.02 0.02 68 1004.3
20260904144759 83 290 0.0 0.0 0.00 0.02 0.02 68 1004.1
20260904144646 83 5 0.0 0.0 0.00 0.02 0.02 69 1004.2
20260904144641 83 292 0.0 0.0 0.00 0.02 0.02 68 1004.1
20260904144518 83 292 0.0 0.0 0.00 0.02 0.02 68 1004.2
20260904144156 83 5 0.0 0.0 0.00 0.02 0.02 69 1004.2
20260904144055 83 327 0.0 0.0 0.00 0.02 0.02 68 1004.3
20260904144018 83 323 0.0 0.0 0.00 0.02 0.02 69 1004.3
20260904143953 83 325 0.0 0.0 0.00 0.02 0.02 69 1004.3
20260904143853 83 80 0.0 0.0 0.00 0.02 0.02 70 1004.3
20260904143808 83 47 0.0 0.0 0.00 0.02 0.02 70 1004.3
20260904143804 83 80 0.0 0.0 0.00 0.02 0.02 70 1004.2
20260904143755 83 87 0.0 0.0 0.00 0.02 0.02 70 1004.3
20260904143549 83 275 0.0 0.0 0.00 0.02 0.02 70 1004.2
20260904143518 83 293 0.0 0.0 0.00 0.02 0.02 69 1004.2
20260904143516 83 259 0.0 0.0 0.00 0.02 0.02 68 1004.4
20260904143512 83 317 0.0 0.0 0.00 0.02 0.02 68 1004.4
20260904143506 83 298 0.0 0.0 0.00 0.02 0.02 68 1004.2
20260904143202 83 321 0.0 0.0 0.00 0.02 0.02 68 1004.5
20260904143146 83 348 0.0 0.0 0.00 0.02 0.02 68 1004.5
20260904143045 83 300 0.0 0.0 0.00 0.02 0.02 67 1004.5
20260904143018 83 309 0.0 0.0 0.00 0.02 0.02 66 1004.4
20260904142944 83 321 0.0 0.0 0.00 0.02 0.02 66 1004.4
20260904142858 83 338 0.0 0.0 0.00 0.02 0.02 66 1004.3
20260904142854 83 292 0.0 0.0 0.00 0.02 0.02 66 1004.3
20260904142701 84 309 0.0 0.0 0.00 0.02 0.02 67 1004.3
20260904142643 83 326 0.0 0.0 0.00 0.02 0.02 67 1004.3
20260904142543 84 328 0.0 0.0 0.00 0.02 0.02 67 1004.3
20260904142518 84 305 0.0 0.0 0.00 0.02 0.02 68 1004.6
20260904142442 83 301 0.0 0.0 0.00 0.02 0.02 68 1004.5
20260904142342 83 304 0.0 0.0 0.00 0.02 0.02 68 1004.4
20260904142243 83 280 0.0 0.0 0.00 0.02 0.02 69 1004.3
20260904142201 83 267 0.0 0.0 0.00 0.02 0.02 69 1004.4
20260904142142 83 266 0.0 0.0 0.00 0.02 0.02 69 1004.4
20260904142042 83 266 0.0 0.0 0.00 0.02 0.02 69 1004.3
20260904142018 83 268 0.0 0.0 0.00 0.02 0.02 69 1005.5
20260904141941 83 273 0.0 0.0 0.00 0.02 0.02 69 1005.6
20260904141840 83 292 0.0 0.0 0.00 0.02 0.02 69 1005.6
20260904141759 83 305 0.0 0.0 0.00 0.02 0.02 70 1004.2
20260904141753 83 307 0.0 0.0 0.00 0.02 0.02 69 1004.2
20260904141746 83 270 0.0 0.0 0.00 0.02 0.02 69 1004.2
20260904141539 83 269 0.0 0.0 0.00 0.02 0.02 70 1004.2
20260904141518 83 279 0.0 0.0 0.00 0.02 0.02 70 1004.2
20260904141439 83 228 0.0 0.0 0.00 0.02 0.02 70 1004.2
20260904141338 83 294 0.0 0.0 0.00 0.02 0.02 71 1004.3
20260904141237 83 246 0.0 0.0 0.00 0.02 0.02 72 1004.4
20260904141201 83 246 0.0 0.0 0.00 0.02 0.02 72 1004.6
20260904141137 83 309 0.0 0.0 0.00 0.02 0.02 71 1004.6
20260904141048 83 268 0.0 0.0 0.00 0.02 0.02 71 1004.7
20260904141044 83 355 0.0 0.0 0.00 0.02 0.02 71 1004.6
20260904141018 83 269 0.0 0.0 0.00 0.02 0.02 71 1004.7
20260904140833 82 306 0.0 0.0 0.00 0.02 0.02 71 1004.8
20260904140733 82 309 0.0 0.0 0.00 0.02 0.02 71 1004.8
20260904140700 82 265 0.0 0.0 0.00 0.02 0.02 71 1004.9
20260904140633 82 279 0.0 0.0 0.00 0.02 0.02 70 1004.9
20260904140532 82 329 0.0 0.0 0.01 0.02 0.02 70 1004.8
20260904140518 82 320 0.0 0.0 0.01 0.02 0.02 70 1004.9
20260904140433 82 323 0.0 0.0 0.01 0.02 0.02 69 1004.9
20260904140426 82 311 0.0 0.0 0.01 0.02 0.02 70 1004.7
20260904140333 82 292 0.0 0.0 0.01 0.02 0.02 69 1004.9
20260904140311 82 292 0.0 0.0 0.01 0.02 0.02 71 1004.7
20260904140157 83 332 0.0 0.0 0.01 0.02 0.02 69 1004.7
20260904140153 83 312 0.0 0.0 0.01 0.02 0.02 70 1004.9
20260904140148 82 311 0.0 0.0 0.01 0.02 0.02 70 1004.7
20260904140018 83 319 0.0 0.0 0.01 0.02 0.02 69 1004.9
20260904135829 83 255 0.0 0.0 0.01 0.02 0.02 70 1004.9
20260904135728 83 311 0.0 0.0 0.01 0.02 0.02 71 1004.8
20260904135700 83 313 0.0 0.0 0.01 0.02 0.02 70 1004.9
20260904135627 83 342 0.0 0.0 0.01 0.02 0.02 70 1004.9
20260904135527 83 272 0.0 0.0 0.01 0.02 0.02 72 1004.9
20260904135518 83 275 0.0 0.0 0.01 0.02 0.02 72 1005.0
20260904135509 83 315 0.0 0.0 0.01 0.02 0.02 73 1005.0
20260904135503 83 319 0.0 0.0 0.01 0.02 0.02 73 1004.9
20260904135349 83 223 0.0 0.0 0.01 0.02 0.02 73 1004.9
20260904135232 83 315 0.0 0.0 0.01 0.02 0.02 73 1005.1
20260904135024 82 330 0.0 0.0 0.01 0.02 0.02 73 1005.2
20260904135018 82 259 0.0 0.0 0.01 0.02 0.02 73 1005.2
20260904134931 82 264 0.0 0.0 0.01 0.02 0.02 74 1005.2
20260904134927 82 263 0.0 0.0 0.01 0.02 0.02 75 1005.1
20260904134923 82 309 0.0 0.0 0.01 0.02 0.02 74 1005.1
20260904134914 82 257 0.0 0.0 0.01 0.02 0.02 75 1005.1
20260904134623 82 263 0.0 0.0 0.01 0.02 0.02 74 1005.2
20260904134536 82 267 0.0 0.0 0.01 0.02 0.02 74 1005.5
20260904134531 82 263 0.0 0.0 0.01 0.02 0.02 74 1005.2
20260904134519 82 267 0.0 0.0 0.01 0.02 0.02 74 1005.5
20260904134321 82 299 0.0 0.0 0.01 0.02 0.02 74 1005.5
20260904134221 81 271 0.0 0.0 0.01 0.02 0.02 74 1005.6
20260904134156 81 294 0.0 0.0 0.01 0.02 0.02 74 1005.6
20260904134134 81 292 0.0 0.0 0.01 0.02 0.02 75 1005.9
20260904134129 81 5 0.0 0.0 0.01 0.02 0.02 74 1005.6
20260904134019 81 291 0.0 0.0 0.01 0.02 0.02 75 1005.8
20260904133920 81 284 0.0 0.0 0.01 0.02 0.02 76 1005.9
20260904133819 81 213 0.0 0.0 0.01 0.02 0.02 76 1005.6
20260904133719 81 314 0.0 0.0 0.01 0.02 0.02 76 1005.6
20260904133654 81 317 0.0 0.0 0.01 0.02 0.02 76 1005.7
20260904133618 81 315 0.0 0.0 0.01 0.02 0.02 75 1005.7
20260904133519 81 317 0.0 0.0 0.01 0.02 0.02 75 1005.7
20260904133443 81 296 0.0 0.0 0.01 0.02 0.02 75 1005.7
20260904133439 81 63 0.0 0.0 0.01 0.02 0.02 75 1005.6
20260904133434 81 290 0.0 0.0 0.01 0.02 0.02 75 1005.8
20260904133151 81 308 0.0 0.0 0.01 0.02 0.02 75 1005.6
20260904133142 81 311 0.0 0.0 0.01 0.02 0.02 75 1005.7
20260904133137 80 253 0.0 0.0 0.01 0.02 0.02 76 1005.8
20260904133132 81 306 0.0 0.0 0.01 0.02 0.02 75 1005.6
20260904133018 81 280 0.0 0.0 0.01 0.02 0.02 75 1005.7
20260904132813 80 302 0.0 0.0 0.01 0.02 0.02 76 1005.7
20260904132713 80 307 0.0 0.0 0.01 0.02 0.02 76 1005.8
20260904132652 80 307 0.0 0.0 0.01 0.02 0.02 76 1005.9
20260904132612 80 309 0.0 0.0 0.01 0.02 0.02 76 1005.9
20260904132526 80 327 0.0 0.0 0.01 0.02 0.02 77 1006.0
20260904132521 80 321 0.0 0.0 0.01 0.02 0.02 76 1006.1
20260904132519 80 321 0.0 0.0 0.01 0.02 0.02 76 1005.9
20260904132311 80 311 0.0 0.0 0.01 0.02 0.02 77 1006.0
20260904132211 80 311 0.0 0.0 0.01 0.02 0.02 78 1006.0
20260904132151 80 311 0.0 0.0 0.01 0.02 0.02 78 1006.1
20260904132110 80 271 0.0 0.0 0.01 0.02 0.02 77 1006.0
20260904132048 80 277 0.0 0.0 0.01 0.02 0.02 77 1006.0
20260904132010 80 277 0.0 0.0 0.01 0.02 0.02 77 1006.5
20260904131908 80 274 0.0 0.0 0.01 0.02 0.02 77 1006.0
20260904131809 80 275 0.0 0.0 0.01 0.02 0.02 77 1006.1
20260904131706 80 300 0.0 0.0 0.01 0.02 0.02 77 1006.3
20260904131650 80 300 0.0 0.0 0.01 0.02 0.02 77 1006.3
20260904131606 80 296 0.0 0.0 0.01 0.02 0.02 77 1006.1
20260904131519 80 276 0.0 0.0 0.01 0.02 0.02 77 1006.3
20260904131504 80 276 0.0 0.0 0.01 0.02 0.02 77 1006.3
20260904131404 80 284 0.0 0.0 0.01 0.02 0.02 77 1006.3
20260904131318 80 313 0.0 0.0 0.01 0.02 0.02 77 1006.3
20260904131313 80 265 0.0 0.0 0.01 0.02 0.02 77 1006.1
20260904131150 80 318 0.0 0.0 0.01 0.02 0.02 77 1006.3
20260904131103 80 285 0.0 0.0 0.01 0.02 0.02 78 1006.4
20260904131018 80 265 0.0 0.0 0.01 0.02 0.02 78 1006.4
20260904131000 80 265 0.0 0.0 0.01 0.02 0.02 78 1006.4
20260904130915 79 269 0.0 0.0 0.01 0.02 0.02 79 1006.7
20260904130909 80 267 0.0 0.0 0.01 0.02 0.02 79 1006.5
20260904130719 79 309 0.0 0.0 0.01 0.02 0.02 79 1006.5
20260904130714 79 302 0.0 0.0 0.01 0.02 0.02 79 1006.7
20260904130707 79 301 0.0 0.0 0.01 0.02 0.02 78 1006.7
20260904130533 79 289 0.0 0.0 0.00 0.01 0.01 80 1006.7
20260904130459 79 289 0.0 0.0 0.00 0.01 0.01 80 1006.7
20260904130411 79 277 0.0 0.0 0.00 0.01 0.01 80 1006.8
20260904130357 79 303 0.0 0.0 0.00 0.01 0.01 80 1006.8
20260904130305 79 252 0.0 0.0 0.00 0.01 0.01 80 1006.7
20260904130256 79 277 0.0 0.0 0.00 0.01 0.01 80 1006.8
20260904130055 79 307 0.0 0.0 0.00 0.01 0.01 80 1006.7
20260904130018 79 307 0.0 0.0 0.00 0.01 0.01 80 1006.7
20260904125955 79 307 0.0 0.0 0.00 0.01 0.01 80 1006.7
20260904125909 78 293 0.0 0.0 0.00 0.01 0.01 81 1008.9
20260904125853 78 318 0.0 0.0 0.00 0.01 0.01 80 1006.7
20260904125804 78 287 0.0 0.0 0.00 0.01 0.01 81 1006.6
20260904125755 78 292 0.0 0.0 0.00 0.01 0.01 81 1008.9
20260904125606 78 311 0.0 0.0 0.00 0.01 0.01 80 1008.9
20260904125601 78 286 0.0 0.0 0.00 0.01 0.01 81 1008.9
20260904125533 78 307 0.0 0.0 0.00 0.01 0.01 80 1008.9
20260904125409 78 313 0.0 0.0 0.00 0.01 0.01 82 1009.8
20260904125351 78 311 0.0 0.0 0.00 0.01 0.01 81 1009.4
20260904125305 78 318 0.0 0.0 0.00 0.01 0.01 82 1009.7
20260904125254 78 313 0.0 0.0 0.00 0.01 0.01 82 1009.8
20260904125049 78 282 0.0 0.0 0.00 0.01 0.01 82 1009.8
20260904125019 78 271 0.0 0.0 0.00 0.01 0.01 83 1009.8
20260904124949 78 270 0.0 0.0 0.00 0.01 0.01 83 1009.8
20260904124848 78 270 0.0 0.0 0.00 0.01 0.01 83 1009.8
20260904124748 78 261 0.0 0.0 0.00 0.01 0.01 83 1009.8
20260904124649 78 261 0.0 0.0 0.00 0.01 0.01 83 1009.8
20260904124547 77 261 0.0 0.0 0.00 0.01 0.01 83 1009.8
20260904124533 77 261 0.0 0.0 0.00 0.01 0.01 84 1009.8
20260904124447 77 261 0.0 0.0 0.00 0.01 0.01 85 1009.8
20260904124346 77 258 0.0 0.0 0.00 0.01 0.01 84 1009.8
20260904124245 77 258 0.0 0.0 0.00 0.01 0.01 84 1009.8
20260904124146 77 256 0.0 0.0 0.00 0.01 0.01 84 1009.8
20260904124044 77 256 0.0 0.0 0.00 0.01 0.01 84 1009.9
20260904124019 77 263 0.0 0.0 0.00 0.01 0.01 84 1009.9
20260904123943 77 228 0.0 0.0 0.00 0.01 0.01 84 1009.9
20260904123841 77 232 0.0 0.0 0.00 0.01 0.01 84 1009.9
20260904123741 77 355 0.0 0.0 0.00 0.01 0.01 84 1009.9
20260904123641 77 280 0.0 0.0 0.00 0.01 0.01 84 1010.0
20260904123540 77 267 0.0 0.0 0.00 0.01 0.01 84 1010.0
20260904123518 77 267 0.0 0.0 0.00 0.01 0.01 85 1010.0
20260904123440 77 267 0.0 0.0 0.00 0.01 0.01 85 1010.0
20260904123353 77 304 0.0 0.0 0.00 0.01 0.01 86 1010.1
20260904123348 77 309 0.0 0.0 0.00 0.01 0.01 85 1010.1
20260904123144 76 244 0.0 0.0 0.00 0.01 0.01 87 1010.1
20260904123139 76 246 0.0 0.0 0.00 0.01 0.01 87 1010.1
20260904123038 76 271 0.0 0.0 0.00 0.01 0.01 87 1010.1
20260904123018 76 270 0.0 0.0 0.00 0.01 0.01 87 1010.0
20260904122957 76 270 0.0 0.0 0.00 0.01 0.01 87 1010.0
20260904122844 76 270 0.0 0.0 0.00 0.01 0.01 88 1010.1
20260904122643 76 270 0.0 0.0 0.00 0.01 0.01 88 1010.1
20260904122634 76 271 0.0 0.0 0.00 0.01 0.01 88 1010.1
20260904122534 76 265 0.0 0.0 0.00 0.01 0.01 88 1010.2
20260904122518 76 259 0.0 0.0 0.00 0.01 0.01 89 1010.1
20260904122433 76 259 0.0 0.0 0.00 0.01 0.01 89 1010.1
20260904122333 76 290 0.0 0.0 0.00 0.01 0.01 89 1010.1
20260904122233 76 290 0.0 0.0 0.00 0.01 0.01 89 1010.0
20260904122132 76 290 0.0 0.0 0.00 0.01 0.01 89 1010.0
20260904122032 76 290 0.0 0.0 0.00 0.01 0.01 89 1010.0
20260904122018 76 271 0.0 0.0 0.00 0.01 0.01 89 1010.1
20260904121932 76 282 0.0 0.0 0.00 0.01 0.01 90 1010.1
20260904121830 75 250 0.0 0.0 0.00 0.01 0.01 90 1010.0
20260904121730 75 248 0.0 0.0 0.00 0.01 0.01 91 1010.0
20260904121648 75 250 0.0 0.0 0.00 0.01 0.01 92 1010.0
20260904121644 75 256 0.0 0.0 0.00 0.01 0.01 91 1009.9
20260904121637 75 250 0.0 0.0 0.00 0.01 0.01 92 1009.9
20260904121519 75 250 0.0 0.0 0.00 0.01 0.01 92 1010.1
20260904121427 75 250 0.0 0.0 0.00 0.01 0.01 92 1010.0
20260904121340 75 251 0.0 0.0 0.00 0.01 0.01 93 1009.9
20260904121335 75 250 0.0 0.0 0.00 0.01 0.01 92 1010.0
20260904121144 75 240 0.0 0.0 0.00 0.01 0.01 94 1009.9
20260904121134 75 240 0.0 0.0 0.00 0.01 0.01 93 1010.0
20260904121019 75 240 0.0 0.0 0.00 0.01 0.01 94 1010.1
20260904120924 74 240 0.0 0.0 0.00 0.01 0.01 94 1010.0
20260904120824 74 239 0.0 0.0 0.00 0.01 0.01 94 1010.0
20260904120722 74 238 0.0 0.0 0.00 0.01 0.01 94 1009.9
20260904120639 74 238 0.0 0.0 0.00 0.01 0.01 95 1010.0
20260904120622 74 238 0.0 0.0 0.00 0.01 0.01 95 1010.0
20260904120522 74 238 0.0 0.0 0.00 0.01 0.01 95 1009.9
20260904120518 74 238 0.0 0.0 0.00 0.01 0.01 95 1010.0
20260904120421 74 238 0.0 0.0 0.00 0.01 0.01 95 1009.9
20260904120321 74 238 0.0 0.0 0.00 0.01 0.01 95 1009.9
20260904120220 74 238 0.0 0.0 0.00 0.01 0.01 95 1009.9
20260904120153 74 238 0.0 0.0 0.00 0.01 0.01 95 1009.9
20260904120149 73 238 0.0 0.0 0.00 0.01 0.01 96 1009.9
20260904120145 74 238 0.0 0.0 0.00 0.01 0.01 95 1009.9
20260904120138 74 238 0.0 0.0 0.00 0.01 0.01 95 1009.9
20260904120018 73 238 0.0 0.0 0.00 0.01 0.01 96 1010.0
20260904115819 73 237 0.0 0.0 0.00 0.01 0.01 96 1009.9
20260904115716 73 237 0.0 0.0 0.00 0.01 0.01 96 1009.8
20260904115635 73 237 0.0 0.0 0.00 0.01 0.01 96 1009.9
20260904115615 73 237 0.0 0.0 0.00 0.01 0.01 96 1009.9
20260904115518 73 237 0.0 0.0 0.00 0.01 0.01 96 1010.0
20260904115515 73 237 0.0 0.0 0.00 0.01 0.01 96 1009.8
20260904115415 73 237 0.0 0.0 0.00 0.01 0.01 96 1009.9
20260904115313 73 237 0.0 0.0 0.00 0.01 0.01 96 1009.9
20260904115213 73 237 0.0 0.0 0.00 0.01 0.01 96 1009.9
20260904115135 73 237 0.0 0.0 0.00 0.01 0.01 96 1010.0
20260904115112 72 237 0.0 0.0 0.00 0.01 0.01 96 1010.0
20260904115018 72 237 0.0 0.0 0.00 0.01 0.01 96 1010.1
20260904115012 72 237 0.0 0.0 0.00 0.01 0.01 96 1010.0
20260904114912 72 237 0.0 0.0 0.00 0.01 0.01 96 1010.0
20260904114825 72 237 0.0 0.0 0.00 0.01 0.01 96 1010.1
20260904114820 72 237 0.0 0.0 0.00 0.01 0.01 96 1010.0
20260904114610 72 237 0.0 0.0 0.00 0.01 0.01 96 1010.1
20260904114518 72 267 0.0 0.0 0.00 0.01 0.01 96 1010.2
20260904114510 72 267 0.0 0.0 0.00 0.01 0.01 96 1010.1
20260904114409 72 267 0.0 0.0 0.00 0.01 0.01 96 1010.1
20260904114309 72 267 0.0 0.0 0.00 0.01 0.01 96 1010.1
20260904114209 72 268 0.0 0.0 0.00 0.01 0.01 96 1010.1
20260904114121 71 268 0.0 0.0 0.00 0.01 0.01 96 1010.0
20260904114115 71 268 0.0 0.0 0.00 0.01 0.01 96 1010.0
20260904114033 71 268 0.0 0.0 0.00 0.01 0.01 96 1010.2
20260904113906 71 268 0.0 0.0 0.00 0.01 0.01 96 1010.1
20260904113858 71 269 0.0 0.0 0.00 0.01 0.01 96 1010.1
20260904113805 71 268 0.0 0.0 0.00 0.01 0.01 96 1010.0
20260904113741 71 269 0.0 0.0 0.00 0.01 0.01 96 1010.1
20260904113604 71 269 0.0 0.0 0.00 0.01 0.01 96 1010.1
20260904113518 71 269 0.0 0.0 0.00 0.01 0.01 96 1010.2
20260904113504 71 269 0.0 0.0 0.00 0.01 0.01 96 1010.1
20260904113419 71 269 0.0 0.0 0.00 0.01 0.01 96 1010.1
20260904113413 71 269 0.0 0.0 0.00 0.01 0.01 96 1010.1
20260904113204 71 269 0.0 0.0 0.00 0.01 0.01 96 1010.1
20260904113103 71 269 0.0 0.0 0.00 0.01 0.01 96 1010.1
20260904113034 70 269 0.0 0.0 0.00 0.01 0.01 96 1010.2
20260904113024 70 269 0.0 0.0 0.00 0.01 0.01 96 1010.1
20260904112911 70 269 0.0 0.0 0.00 0.01 0.01 96 1010.1
20260904112700 70 269 0.0 0.0 0.00 0.01 0.01 96 1010.2
20260904112629 70 269 0.0 0.0 0.00 0.01 0.01 96 1010.2
20260904112600 70 269 0.0 0.0 0.00 0.01 0.01 96 1010.1
20260904112518 70 269 0.0 0.0 0.00 0.01 0.01 96 1010.2
20260904112459 70 269 0.0 0.0 0.00 0.01 0.01 96 1010.1
20260904112359 70 269 0.0 0.0 0.00 0.01 0.01 96 1010.1
20260904112259 70 269 0.0 0.0 0.00 0.01 0.01 96 1010.1
20260904112206 70 269 0.0 0.0 0.00 0.01 0.01 96 1010.1
20260904112159 70 269 0.0 0.0 0.00 0.01 0.01 96 1010.1
20260904112048 70 269 0.0 0.0 0.00 0.01 0.01 96 1010.0
20260904112042 70 269 0.0 0.0 0.00 0.01 0.01 96 1010.1
20260904112018 70 269 0.0 0.0 0.00 0.01 0.01 96 1010.2
20260904111928 70 269 0.0 0.0 0.00 0.01 0.01 96 1010.1
20260904111810 70 269 0.0 0.0 0.00 0.01 0.01 96 1010.0
20260904111519 70 269 0.0 0.0 0.00 0.01 0.01 96 1010.1
20260904111456 70 269 0.0 0.0 0.00 0.01 0.01 96 1010.0
20260904111354 70 269 0.0 0.0 0.00 0.01 0.01 96 1009.9
20260904111254 70 269 0.0 0.0 0.00 0.01 0.01 96 1009.9
20260904111213 70 269 0.0 0.0 0.00 0.01 0.01 96 1009.9
20260904111102 70 269 0.0 0.0 0.00 0.01 0.01 96 1009.9
20260904111048 70 269 0.0 0.0 0.00 0.01 0.01 96 1010.0
20260904110852 70 269 0.0 0.0 0.00 0.01 0.01 96 1009.8
20260904110752 70 269 0.0 0.0 0.00 0.01 0.01 96 1009.8
20260904110624 70 269 0.0 0.0 0.00 0.01 0.01 96 1009.8
20260904110551 70 269 0.0 0.0 0.00 0.01 0.01 96 1009.8
20260904110518 70 269 0.0 0.0 0.00 0.01 0.01 96 1009.9
20260904110449 70 269 0.0 0.0 0.00 0.01 0.01 96 1009.8
20260904110350 70 269 0.0 0.0 0.00 0.01 0.01 96 1009.8
20260904110343 70 269 0.0 0.0 0.00 0.01 0.01 96 1009.6
20260904110249 70 269 0.0 0.0 0.00 0.01 0.01 96 1009.7
20260904110232 70 269 0.0 0.0 0.00 0.01 0.01 96 1009.6
20260904110049 70 269 0.0 0.0 0.00 0.01 0.01 96 1009.6
20260904110018 70 269 0.0 0.0 0.00 0.01 0.01 96 1009.7
20260904105949 70 269 0.0 0.0 0.00 0.01 0.01 96 1009.6
20260904105847 70 269 0.0 0.0 0.00 0.01 0.01 96 1009.5
20260904105746 70 269 0.0 0.0 0.00 0.01 0.01 96 1009.5
20260904105623 70 269 0.0 0.0 0.00 0.01 0.01 96 1009.5
20260904105545 70 269 0.0 0.0 0.00 0.01 0.01 96 1009.5
20260904105519 70 269 0.0 0.0 0.00 0.01 0.01 96 1009.6
20260904105445 70 269 0.0 0.0 0.00 0.01 0.01 96 1009.5
20260904105359 71 269 0.0 0.0 0.00 0.01 0.01 95 1009.5
20260904105354 70 269 0.0 0.0 0.00 0.01 0.01 96 1009.4
20260904105144 70 269 0.0 0.0 0.00 0.01 0.01 95 1009.4
20260904105123 71 269 0.0 0.0 0.00 0.01 0.01 95 1009.4
20260904105042 71 269 0.0 0.0 0.00 0.01 0.01 95 1009.4
20260904105018 71 269 0.0 0.0 0.00 0.01 0.01 95 1009.4
20260904104942 71 269 0.0 0.0 0.00 0.01 0.01 95 1009.3
20260904104843 71 269 0.0 0.0 0.00 0.01 0.01 95 1009.3
20260904104741 71 269 0.0 0.0 0.00 0.01 0.01 95 1009.3
20260904104659 71 269 0.0 0.0 0.00 0.01 0.01 95 1009.3
20260904104647 71 269 0.0 0.0 0.00 0.01 0.01 95 1009.2
20260904104519 71 269 0.0 0.0 0.00 0.01 0.01 95 1009.4
20260904104439 71 269 0.0 0.0 0.00 0.01 0.01 95 1009.3
20260904104337 71 269 0.0 0.0 0.00 0.01 0.01 95 1009.3
20260904104237 71 269 0.0 0.0 0.00 0.01 0.01 95 1009.3
20260904104122 71 269 0.0 0.0 0.00 0.01 0.01 95 1009.3
20260904104049 71 269 0.0 0.0 0.00 0.01 0.01 95 1009.4
20260904104036 71 269 0.0 0.0 0.00 0.01 0.01 95 1009.4
20260904103938 71 269 0.0 0.0 0.00 0.01 0.01 95 1009.3
20260904103836 71 269 0.0 0.0 0.00 0.01 0.01 95 1009.3
20260904103736 71 269 0.0 0.0 0.00 0.01 0.01 95 1009.2
20260904103620 71 269 0.0 0.0 0.00 0.01 0.01 95 1009.2
20260904103535 71 269 0.0 0.0 0.00 0.01 0.01 95 1009.2
20260904103519 71 269 0.0 0.0 0.00 0.01 0.01 95 1009.3
20260904103434 71 269 0.0 0.0 0.00 0.01 0.01 95 1009.2
20260904103333 71 269 0.0 0.0 0.00 0.01 0.01 95 1009.2
20260904103246 71 269 0.0 0.0 0.00 0.01 0.01 95 1009.2
20260904103242 71 269 0.0 0.0 0.00 0.01 0.01 95 1009.1
20260904103120 71 269 0.0 0.0 0.00 0.01 0.01 95 1009.2
20260904103032 71 269 0.0 0.0 0.00 0.01 0.01 95 1009.2
20260904103019 71 269 0.0 0.0 0.00 0.01 0.01 95 1009.2
20260904102932 71 269 0.0 0.0 0.00 0.01 0.01 95 1009.1
20260904102832 71 269 0.0 0.0 0.00 0.01 0.01 95 1009.1
20260904102730 71 269 0.0 0.0 0.00 0.01 0.01 95 1009.1
20260904102703 71 269 0.0 0.0 0.00 0.01 0.01 95 1009.1
20260904102659 71 269 0.0 0.0 0.00 0.01 0.01 95 1009.1
20260904102645 71 269 0.0 0.0 0.00 0.01 0.01 95 1009.1
20260904102548 71 269 0.0 0.0 0.00 0.01 0.01 95 1009.2
20260904102329 71 269 0.0 0.0 0.00 0.01 0.01 95 1009.1
20260904102229 71 269 0.0 0.0 0.00 0.01 0.01 95 1009.1
20260904102119 71 269 0.0 0.0 0.00 0.01 0.01 95 1009.1
20260904102034 71 269 0.0 0.0 0.00 0.01 0.01 95 1009.2
20260904102028 71 269 0.0 0.0 0.00 0.01 0.01 95 1009.1
20260904101926 71 269 0.0 0.0 0.00 0.01 0.01 95 1009.1
20260904101841 71 269 0.0 0.0 0.00 0.01 0.01 95 1009.0
20260904101826 71 269 0.0 0.0 0.00 0.01 0.01 95 1009.1
20260904101738 71 269 0.0 0.0 0.00 0.01 0.01 95 1009.1
20260904101728 71 269 0.0 0.0 0.00 0.01 0.01 95 1009.0
20260904101524 71 269 0.0 0.0 0.00 0.01 0.01 95 1009.0
20260904101519 71 269 0.0 0.0 0.00 0.01 0.01 95 1009.1
20260904101424 71 269 0.0 0.0 0.00 0.01 0.01 95 1009.0
20260904101324 71 269 0.0 0.0 0.00 0.01 0.01 95 1009.0
20260904101223 71 269 0.0 0.0 0.00 0.01 0.01 95 1009.1
20260904101119 71 269 0.0 0.0 0.00 0.01 0.01 95 1009.1
20260904101022 71 269 0.0 0.0 0.00 0.01 0.01 95 1009.1
20260904101019 71 269 0.0 0.0 0.00 0.01 0.01 95 1009.2
20260904100922 71 269 0.0 0.0 0.00 0.01 0.01 95 1009.1
20260904100821 71 269 0.0 0.0 0.00 0.01 0.01 95 1009.2
20260904100721 71 269 0.0 0.0 0.00 0.01 0.01 95 1009.2
20260904100622 71 269 0.0 0.0 0.00 0.01 0.01 95 1009.2
20260904100520 71 269 0.0 0.0 0.00 0.01 0.01 95 1009.2
20260904100420 71 269 0.0 0.0 0.00 0.01 0.01 95 1009.2
20260904100319 71 269 0.0 0.0 0.00 0.01 0.01 95 1009.3
20260904100219 71 269 0.0 0.0 0.00 0.01 0.01 95 1009.2
20260904100121 71 269 0.0 0.0 0.00 0.01 0.01 95 1009.3
20260904100019 72 269 0.0 0.0 0.00 0.01 0.01 95 1009.3
20260904095919 72 269 0.0 0.0 0.00 0.01 0.01 95 1009.3
20260904095831 72 269 0.0 0.0 0.00 0.01 0.01 95 1009.3
20260904095827 72 269 0.0 0.0 0.00 0.01 0.01 95 1009.3
20260904095619 72 269 0.0 0.0 0.00 0.01 0.01 95 1009.3
20260904095536 72 269 0.0 0.0 0.00 0.01 0.01 95 1009.3
20260904095519 72 269 0.0 0.0 0.00 0.01 0.01 95 1009.4
20260904095423 72 269 0.0 0.0 0.00 0.01 0.01 95 1009.3
20260904095214 72 269 0.0 0.0 0.00 0.01 0.01 95 1009.3
20260904095131 72 269 0.0 0.0 0.00 0.01 0.01 95 1009.2
20260904095123 72 269 0.0 0.0 0.00 0.01 0.01 95 1009.2
20260904095019 72 269 0.0 0.0 0.00 0.01 0.01 95 1009.4
20260904094912 72 269 0.0 0.0 0.00 0.01 0.01 95 1009.3
20260904094825 72 269 0.0 0.0 0.00 0.01 0.01 95 1009.3
20260904094821 72 269 0.0 0.0 0.00 0.01 0.01 95 1009.3
20260904094612 72 269 0.0 0.0 0.00 0.01 0.01 95 1009.3
20260904094519 72 269 0.0 0.0 0.00 0.01 0.01 95 1009.4
20260904094511 72 269 0.0 0.0 0.00 0.01 0.01 95 1009.3
20260904094409 72 269 0.0 0.0 0.00 0.01 0.01 95 1009.3
20260904094307 72 269 0.0 0.0 0.00 0.01 0.01 95 1009.3
20260904094207 72 269 0.0 0.0 0.00 0.01 0.01 95 1009.3
20260904094106 72 269 0.0 0.0 0.00 0.01 0.01 95 1009.3
20260904094019 72 275 0.0 0.0 0.00 0.01 0.01 95 1009.4
20260904094007 72 275 0.0 0.0 0.00 0.01 0.01 95 1009.2
20260904093906 72 275 0.0 0.0 0.00 0.01 0.01 95 1009.3
20260904093805 72 275 0.0 0.0 0.00 0.02 0.01 95 1009.3
20260904093705 72 275 0.0 0.0 0.00 0.02 0.01 95 1009.2
20260904093605 72 275 0.0 0.0 0.00 0.02 0.01 95 1009.2
20260904093519 72 275 0.0 0.0 0.00 0.02 0.01 95 1009.3
20260904093503 72 275 0.0 0.0 0.00 0.02 0.01 95 1009.2
20260904093404 72 275 0.0 0.0 0.00 0.02 0.01 95 1009.2
20260904093303 72 275 0.0 0.0 0.00 0.02 0.01 95 1009.2
20260904093203 72 275 0.0 0.0 0.00 0.02 0.01 96 1009.2
20260904093112 72 275 0.0 0.0 0.00 0.02 0.01 96 1009.2
20260904093102 72 275 0.0 0.0 0.00 0.02 0.01 96 1009.1
20260904093019 72 275 0.0 0.0 0.00 0.02 0.01 96 1009.2
20260904093002 72 275 0.0 0.0 0.00 0.02 0.01 96 1009.1
20260904092902 72 275 0.0 0.0 0.00 0.02 0.01 96 1009.1
20260904092801 72 275 0.0 0.0 0.00 0.02 0.01 96 1009.2
20260904092700 72 275 0.0 0.0 0.00 0.02 0.01 96 1009.2
20260904092610 72 275 0.0 0.0 0.00 0.02 0.01 96 1009.2
20260904092559 72 275 0.0 0.0 0.00 0.02 0.01 96 1009.2
20260904092518 73 275 0.0 0.0 0.00 0.02 0.01 96 1009.4
20260904092459 73 275 0.0 0.0 0.00 0.02 0.01 96 1009.2
20260904092358 73 275 0.0 0.0 0.00 0.02 0.01 96 1009.2
20260904092258 73 275 0.0 0.0 0.00 0.03 0.01 96 1009.3
20260904092157 73 275 0.0 0.0 0.00 0.03 0.01 96 1009.3
20260904092110 73 275 0.0 0.0 0.00 0.03 0.01 96 1009.3
20260904092057 73 275 0.0 0.0 0.00 0.03 0.01 96 1009.3
20260904092019 73 275 0.0 0.0 0.00 0.03 0.01 96 1009.5
20260904091956 73 275 0.0 0.0 0.00 0.03 0.01 96 1009.3
20260904091856 73 275 0.0 0.0 0.00 0.03 0.01 96 1009.3
20260904091833 73 275 0.0 0.0 0.00 0.04 0.01 96 1009.3
20260904091828 73 275 0.0 0.0 0.00 0.03 0.01 96 1009.3
20260904091556 73 275 0.0 0.0 0.00 0.04 0.01 96 1009.3
20260904091550 73 275 0.0 0.0 0.00 0.04 0.01 96 1009.4
20260904091543 73 275 0.0 0.0 0.00 0.04 0.01 96 1009.3
20260904091533 73 275 0.0 0.0 0.00 0.04 0.01 96 1009.5
20260904091431 73 275 0.0 0.0 0.00 0.05 0.01 96 1009.4
20260904091426 73 275 0.0 0.0 0.00 0.04 0.01 96 1009.4
20260904091158 73 275 0.0 0.0 0.00 0.05 0.01 96 1009.4
20260904091019 73 275 0.0 0.0 0.00 0.05 0.01 96 1009.6
20260904090951 73 275 0.0 0.0 0.00 0.05 0.01 96 1009.4
20260904090851 73 275 0.0 0.0 0.00 0.05 0.01 96 1009.4
20260904090751 73 275 0.0 0.0 0.00 0.06 0.01 96 1009.4
20260904090650 73 275 0.0 0.0 0.00 0.06 0.01 96 1009.4
20260904090609 73 275 0.0 0.0 0.00 0.06 0.01 96 1009.4
20260904090549 73 275 0.0 0.0 0.00 0.06 0.01 96 1009.4
20260904090518 73 275 0.0 0.0 0.00 0.06 0.01 96 1009.5
20260904090449 73 275 0.0 0.0 0.00 0.06 0.01 96 1009.3
20260904090416 73 275 0.0 0.0 0.00 0.07 0.01 96 1009.3
20260904090349 73 275 0.0 0.0 0.00 0.06 0.01 96 1009.3
20260904090317 73 275 0.0 0.0 0.00 0.07 0.01 96 1009.3
20260904090312 73 275 0.0 0.0 0.00 0.06 0.01 96 1009.3
20260904090303 73 275 0.0 0.0 0.00 0.07 0.01 96 1009.3
20260904090019 73 275 0.0 0.0 0.00 0.07 0.01 96 1009.5
20260904085947 73 275 0.0 0.0 0.00 0.07 0.01 96 1009.3
20260904085846 73 254 0.0 0.0 0.00 0.08 0.01 96 1009.2
20260904085746 73 254 0.0 0.0 0.00 0.08 0.01 96 1009.2
20260904085645 73 254 0.0 0.0 0.00 0.08 0.01 96 1009.2
20260904085608 73 254 0.0 0.0 0.00 0.08 0.01 96 1009.2
20260904085545 73 254 0.0 0.0 0.00 0.08 0.01 96 1009.2
20260904085519 73 254 0.0 0.0 0.00 0.08 0.01 96 1009.4
20260904085444 73 254 0.0 0.0 0.00 0.08 0.01 96 1009.2
20260904085344 73 263 0.0 0.0 0.00 0.09 0.01 96 1009.2
20260904085244 73 263 0.0 0.0 0.00 0.09 0.01 96 1009.2
20260904085142 73 263 0.0 0.0 0.00 0.09 0.01 96 1009.2
20260904085108 73 263 0.0 0.0 0.00 0.09 0.01 96 1009.2
20260904085054 73 263 0.0 0.0 0.00 0.10 0.01 96 1009.2
20260904085050 73 263 0.0 0.0 0.00 0.09 0.01 96 1009.2
20260904085019 73 263 0.0 0.0 0.00 0.10 0.01 96 1009.4
20260904084841 73 263 0.0 0.0 0.00 0.10 0.01 96 1009.2
20260904084740 73 263 0.0 0.0 0.00 0.10 0.01 96 1009.2
20260904084640 73 263 0.0 0.0 0.00 0.10 0.01 96 1009.2
20260904084605 73 263 0.0 0.0 0.00 0.10 0.01 96 1009.2
20260904084539 74 263 0.0 0.0 0.00 0.10 0.01 96 1009.2
20260904084518 74 263 0.0 0.0 0.00 0.10 0.01 96 1009.4
20260904084440 73 263 0.0 0.0 0.00 0.10 0.01 96 1009.2
20260904084341 74 263 0.0 0.0 0.00 0.10 0.01 96 1009.2
20260904084239 74 263 0.0 0.0 0.00 0.10 0.01 96 1009.2
20260904084139 74 263 0.0 0.0 0.00 0.10 0.01 96 1009.2
20260904084109 74 263 0.0 0.0 0.00 0.10 0.01 96 1009.2
20260904084105 74 263 0.0 0.0 0.00 0.10 0.01 96 1009.2
20260904084059 74 262 0.0 0.0 0.00 0.10 0.01 96 1009.1
20260904084054 74 263 0.0 0.0 0.00 0.10 0.01 96 1009.2
20260904084019 74 263 0.0 0.0 0.00 0.10 0.01 96 1009.4
20260904083940 74 263 0.0 0.0 0.00 0.10 0.01 96 1009.2
20260904083931 74 263 0.0 0.0 0.00 0.10 0.01 96 1009.2
20260904083548 74 262 0.0 0.0 0.00 0.11 0.01 96 1009.4
20260904083543 74 262 0.0 0.0 0.00 0.11 0.01 96 1009.2
20260904083355 74 267 0.0 0.0 0.00 0.11 0.01 96 1009.2
20260904083241 74 267 0.0 0.0 0.00 0.11 0.01 96 1009.3
20260904083104 74 267 0.0 0.0 0.00 0.11 0.01 96 1009.3
20260904083032 74 267 0.0 0.0 0.00 0.11 0.01 96 1009.3
20260904083018 74 267 0.0 0.0 0.00 0.11 0.01 96 1009.5
20260904082932 74 267 0.0 0.0 0.00 0.11 0.01 96 1009.3
20260904082831 74 264 0.0 0.0 0.00 0.11 0.01 96 1009.3
20260904082730 74 263 0.0 0.0 0.00 0.12 0.01 96 1009.2
20260904082630 74 263 0.0 0.0 0.00 0.12 0.01 96 1009.2
20260904082602 74 263 0.0 0.0 0.00 0.12 0.01 96 1009.2
20260904082530 74 263 0.0 0.0 0.00 0.12 0.01 96 1009.2
20260904082519 74 263 0.0 0.0 0.00 0.12 0.01 96 1009.4
20260904082430 74 263 0.0 0.0 0.00 0.12 0.01 96 1009.2
20260904082330 74 263 0.0 0.0 0.00 0.12 0.01 96 1009.2
20260904082228 74 263 0.0 0.0 0.00 0.13 0.01 96 1009.2
20260904082128 74 263 0.0 0.0 0.00 0.14 0.01 96 1009.2
20260904082101 74 263 0.0 0.0 0.00 0.14 0.01 96 1009.2
20260904082027 74 263 0.0 0.0 0.00 0.14 0.01 96 1009.2
20260904082019 74 263 0.0 0.0 0.00 0.14 0.01 96 1009.4
20260904081928 74 263 0.0 0.0 0.00 0.15 0.01 96 1009.2
20260904081828 74 263 0.0 0.0 0.00 0.16 0.01 96 1009.2
20260904081740 74 263 0.0 0.0 0.00 0.16 0.01 96 1009.2
20260904081736 74 263 0.0 0.0 0.00 0.16 0.01 96 1009.2
20260904081601 73 263 0.0 0.0 0.00 0.16 0.01 96 1009.2
20260904081526 73 263 0.0 0.0 0.00 0.16 0.01 96 1009.2
20260904081519 73 263 0.0 0.0 0.00 0.16 0.01 96 1009.3
20260904081426 73 263 0.0 0.0 0.00 0.16 0.01 96 1009.1
20260904081407 73 263 0.0 0.0 0.00 0.17 0.01 96 1009.2
20260904081402 73 263 0.0 0.0 0.00 0.17 0.01 96 1009.2
20260904081249 73 263 0.0 0.0 0.00 0.17 0.01 96 1009.2
20260904081239 73 263 0.0 0.0 0.00 0.17 0.01 96 1009.1
20260904081018 73 263 0.0 0.0 0.00 0.17 0.01 96 1009.4
20260904080938 73 263 0.0 0.0 0.00 0.17 0.01 96 1009.2
20260904080934 73 263 0.0 0.0 0.00 0.17 0.01 96 1009.2
20260904080723 73 263 0.0 0.0 0.00 0.17 0.01 96 1009.2
20260904080623 73 263 0.0 0.0 0.00 0.17 0.01 96 1009.2
20260904080558 73 263 0.0 0.0 0.00 0.18 0.01 96 1009.2
20260904080536 73 257 0.0 0.0 0.00 0.18 0.01 96 1009.2
20260904080532 73 261 0.0 0.0 0.00 0.18 0.01 96 1009.2
20260904080519 73 257 0.0 0.0 0.00 0.18 0.01 96 1009.4
20260904080335 73 245 0.0 0.0 0.00 0.18 0.01 96 1009.1
20260904080331 73 245 0.0 0.0 0.00 0.18 0.01 96 1009.1
20260904080141 73 245 0.0 0.0 0.00 0.19 0.01 96 1009.1
20260904080136 73 245 0.0 0.0 0.00 0.18 0.01 96 1009.1
20260904080128 73 245 0.0 0.0 0.00 0.18 0.01 96 1009.1
20260904080019 73 245 0.0 0.0 0.00 0.18 0.01 96 1009.4
20260904075921 73 245 0.0 0.0 0.00 0.19 0.01 96 1009.2
20260904075819 73 245 0.0 0.0 0.00 0.19 0.01 96 1009.2
20260904075719 73 245 0.0 0.0 0.00 0.19 0.01 96 1009.2
20260904075618 73 245 0.0 0.0 0.00 0.19 0.01 96 1009.2
20260904075555 73 245 0.0 0.0 0.00 0.19 0.01 96 1009.2
20260904075519 73 245 0.0 0.0 0.00 0.19 0.01 96 1009.5
20260904075417 73 245 0.0 0.0 0.00 0.20 0.01 96 1009.3
20260904075317 73 245 0.0 0.0 0.00 0.20 0.01 96 1009.3
20260904075248 73 245 0.0 0.0 0.00 0.20 0.01 96 1009.3
20260904075244 73 245 0.0 0.0 0.00 0.20 0.01 96 1009.2
20260904075239 73 245 0.0 0.0 0.00 0.20 0.01 96 1009.2
20260904075122 73 245 0.0 0.0 0.00 0.20 0.01 96 1009.2
20260904075019 73 245 0.0 0.0 0.00 0.20 0.01 96 1009.4
20260904074915 73 245 0.0 0.0 0.00 0.20 0.01 96 1009.2
20260904074814 73 245 0.0 0.0 0.00 0.20 0.01 96 1009.2
20260904074714 73 245 0.0 0.0 0.00 0.20 0.01 96 1009.2
20260904074627 73 245 0.0 0.0 0.00 0.20 0.01 96 1009.3
20260904074619 73 245 0.0 0.0 0.00 0.20 0.01 96 1009.3
20260904074519 73 245 0.0 0.0 0.00 0.20 0.01 96 1009.5
20260904074412 73 245 0.0 0.0 0.00 0.20 0.01 96 1009.3
20260904074312 73 245 0.0 0.0 0.00 0.20 0.01 96 1009.2
20260904074224 73 245 0.0 0.0 0.00 0.20 0.01 96 1009.2
20260904074220 73 245 0.0 0.0 0.00 0.20 0.01 96 1009.2
20260904074051 73 245 0.0 0.0 0.00 0.20 0.01 96 1009.2
20260904074019 73 245 0.0 0.0 0.00 0.20 0.01 96 1009.4
20260904074010 73 245 0.0 0.0 0.00 0.20 0.01 96 1009.2
20260904073911 73 245 0.0 0.0 0.00 0.21 0.01 96 1009.2
20260904073826 73 245 0.0 0.0 0.00 0.22 0.01 96 1009.1
20260904073821 73 245 0.0 0.0 0.00 0.22 0.01 96 1009.1
20260904073817 73 245 0.0 0.0 0.00 0.22 0.01 96 1009.2
20260904073808 73 245 0.0 0.0 0.00 0.22 0.01 96 1009.1
20260904073518 73 245 0.0 0.0 0.00 0.22 0.01 96 1009.4
20260904073510 73 245 0.0 0.0 0.00 0.22 0.01 96 1009.1
20260904073409 73 245 0.0 0.0 0.00 0.22 0.01 96 1009.2
20260904073309 73 245 0.0 0.0 0.00 0.22 0.01 96 1009.2
20260904073209 73 245 0.0 0.0 0.00 0.22 0.01 96 1009.2
20260904073123 73 245 0.0 0.0 0.00 0.22 0.01 96 1009.2
20260904073115 73 245 0.0 0.0 0.00 0.22 0.01 96 1009.2
20260904073018 73 245 0.0 0.0 0.00 0.22 0.01 96 1009.4
20260904072908 73 245 0.0 0.0 0.00 0.22 0.01 96 1009.2
20260904072807 73 245 0.0 0.0 0.00 0.22 0.01 96 1009.2
20260904072719 73 245 0.0 0.0 0.00 0.22 0.01 96 1009.1
20260904072714 73 245 0.0 0.0 0.00 0.22 0.01 96 1009.2
20260904072549 73 245 0.0 0.0 0.00 0.22 0.01 96 1009.1
20260904072518 73 245 0.0 0.0 0.00 0.22 0.01 96 1009.4
20260904072505 73 245 0.0 0.0 0.00 0.22 0.01 96 1009.2
20260904072404 73 245 0.0 0.0 0.00 0.22 0.01 96 1009.1
20260904072312 73 245 0.0 0.0 0.00 0.22 0.01 96 1009.1
20260904072306 73 245 0.0 0.0 0.00 0.22 0.01 96 1009.1
20260904072204 73 245 0.0 0.0 0.00 0.22 0.01 96 1009.1
20260904072155 73 245 0.0 0.0 0.00 0.22 0.01 96 1009.1
20260904072034 73 245 0.0 0.0 0.00 0.22 0.01 96 1009.2
20260904072002 73 245 0.0 0.0 0.00 0.22 0.01 96 1009.0
20260904071902 73 245 0.0 0.0 0.00 0.22 0.01 96 1009.0
20260904071815 73 245 0.0 0.0 0.00 0.22 0.01 96 1009.0
20260904071801 73 245 0.0 0.0 0.00 0.22 0.01 96 1009.0
20260904071703 73 245 0.0 0.0 0.00 0.22 0.01 96 1008.9
20260904071654 73 245 0.0 0.0 0.00 0.22 0.01 96 1009.0
20260904071519 73 245 0.0 0.0 0.00 0.22 0.01 96 1009.1
20260904071501 73 245 0.0 0.0 0.00 0.22 0.01 96 1008.9
20260904071415 73 245 0.0 0.0 0.00 0.22 0.01 96 1008.8
20260904071409 73 245 0.0 0.0 0.00 0.22 0.01 96 1008.9
20260904071159 73 245 0.0 0.0 0.00 0.22 0.01 96 1008.8
20260904071119 73 245 0.0 0.0 0.00 0.22 0.01 96 1008.8
20260904071107 73 245 0.0 0.0 0.00 0.22 0.01 96 1008.8
20260904071019 73 245 0.0 0.0 0.00 0.22 0.01 96 1009.0
20260904070857 73 245 0.0 0.0 0.00 0.22 0.01 96 1008.7
20260904070811 74 245 0.0 0.0 0.00 0.22 0.01 96 1008.7
20260904070806 73 245 0.0 0.0 0.00 0.22 0.01 96 1008.7
20260904070546 73 245 0.0 0.0 0.00 0.22 0.01 96 1008.6
20260904070519 73 245 0.0 0.0 0.00 0.22 0.01 96 1008.8
20260904070456 73 245 0.0 0.0 0.00 0.22 0.01 96 1008.6
20260904070355 73 245 0.0 0.0 0.00 0.22 0.01 96 1008.6
20260904070309 73 245 0.0 0.0 0.00 0.22 0.01 96 1008.6
20260904070254 73 245 0.0 0.0 0.00 0.22 0.01 96 1008.6
20260904070202 74 245 0.0 0.0 0.00 0.22 0.01 96 1008.5
20260904070153 74 245 0.0 0.0 0.00 0.22 0.01 96 1008.6
20260904070019 74 245 0.0 0.0 0.00 0.22 0.01 96 1008.8
20260904065953 74 245 0.0 0.0 0.00 0.22 0.01 96 1008.6
20260904065851 74 245 0.0 0.0 0.00 0.22 0.01 96 1008.6
20260904065751 74 245 0.0 0.0 0.00 0.22 0.01 96 1008.5
20260904065650 74 245 0.0 0.0 0.00 0.22 0.01 96 1008.5
20260904065611 74 245 0.0 0.0 0.00 0.22 0.01 96 1008.5
20260904065519 74 245 0.0 0.0 0.00 0.22 0.01 96 1008.7
20260904065459 74 245 0.0 0.0 0.00 0.22 0.01 96 1008.5
20260904065249 74 245 0.0 0.0 0.00 0.22 0.01 95 1008.4
20260904065149 74 245 0.0 0.0 0.00 0.22 0.01 95 1008.4
20260904065046 74 245 0.0 0.0 0.00 0.22 0.01 95 1008.4
20260904065019 74 245 0.0 0.0 0.00 0.22 0.01 95 1008.5
20260904064948 74 245 0.0 0.0 0.00 0.22 0.01 95 1008.3
20260904064847 74 245 0.0 0.0 0.00 0.22 0.01 95 1008.3
20260904064813 74 245 0.0 0.0 0.00 0.22 0.01 95 1008.3
20260904064747 74 245 0.0 0.0 0.00 0.22 0.01 95 1008.4
20260904064702 74 244 0.0 0.0 0.00 0.22 0.01 95 1008.4
20260904064653 74 245 0.0 0.0 0.00 0.22 0.01 95 1008.3
20260904064518 74 245 0.0 0.0 0.00 0.22 0.01 95 1008.5
20260904064447 74 245 0.0 0.0 0.00 0.22 0.01 95 1008.3
20260904064346 74 245 0.0 0.0 0.00 0.22 0.01 95 1008.3
20260904064245 74 245 0.0 0.0 0.00 0.22 0.01 95 1008.3
20260904064145 74 245 0.0 0.0 0.00 0.22 0.01 95 1008.3
20260904064044 74 245 0.0 0.0 0.00 0.22 0.01 95 1008.4
20260904064019 74 245 0.0 0.0 0.00 0.22 0.01 95 1008.6
20260904063944 74 245 0.0 0.0 0.00 0.22 0.01 95 1008.4
20260904063843 74 245 0.0 0.0 0.00 0.22 0.01 95 1008.4
20260904063742 74 245 0.0 0.0 0.00 0.22 0.01 95 1008.4
20260904063657 74 245 0.0 0.0 0.00 0.22 0.01 95 1008.3
20260904063648 74 245 0.0 0.0 0.00 0.22 0.01 95 1008.4
20260904063519 74 245 0.0 0.0 0.00 0.22 0.01 95 1008.6
20260904063441 74 245 0.0 0.0 0.00 0.22 0.01 95 1008.4
20260904063421 74 245 0.0 0.0 0.00 0.22 0.01 95 1008.4
20260904063416 74 245 0.0 0.0 0.00 0.22 0.01 95 1008.3
20260904063411 74 245 0.0 0.0 0.00 0.22 0.01 95 1008.4
20260904063252 74 245 0.0 0.0 0.00 0.22 0.01 95 1008.4
20260904063019 74 245 0.0 0.0 0.00 0.22 0.01 95 1008.4
20260904062937 74 245 0.0 0.0 0.00 0.22 0.01 95 1008.2
20260904062837 74 245 0.0 0.0 0.00 0.22 0.01 95 1008.2
20260904062737 74 245 0.0 0.0 0.00 0.22 0.01 95 1008.1
20260904062635 74 245 0.0 0.0 0.00 0.22 0.01 95 1008.1
20260904062536 74 245 0.0 0.0 0.00 0.22 0.01 95 1008.1
20260904062519 74 245 0.0 0.0 0.00 0.22 0.01 95 1008.4
20260904062434 74 244 0.0 0.0 0.00 0.22 0.01 95 1008.2
20260904062334 74 245 0.0 0.0 0.00 0.22 0.01 95 1008.2
20260904062324 74 245 0.0 0.0 0.00 0.22 0.01 95 1008.3
20260904062317 74 245 0.0 0.0 0.00 0.22 0.01 95 1008.3
20260904062313 74 245 0.0 0.0 0.00 0.23 0.01 95 1008.4
20260904062306 74 245 0.0 0.0 0.00 0.22 0.01 95 1008.3
20260904062042 74 245 0.0 0.0 0.00 0.22 0.01 95 1008.3
20260904062034 74 245 0.0 0.0 0.00 0.22 0.01 95 1008.6
20260904061832 74 245 0.0 0.0 0.00 0.23 0.01 95 1008.4
20260904061732 74 245 0.0 0.0 0.00 0.23 0.01 95 1008.4
20260904061631 74 245 0.0 0.0 0.00 0.23 0.01 95 1008.4
20260904061534 74 245 0.0 0.0 0.00 0.23 0.01 95 1008.6
20260904061531 74 245 0.0 0.0 0.00 0.23 0.01 95 1008.4
20260904061430 74 245 0.0 0.0 0.00 0.23 0.01 95 1008.4
20260904061341 74 245 0.0 0.0 0.00 0.24 0.01 95 1008.5
20260904061331 74 245 0.0 0.0 0.00 0.24 0.01 95 1008.5
20260904061220 74 245 0.0 0.0 0.00 0.26 0.01 95 1008.5
20260904061214 74 245 0.0 0.0 0.00 0.25 0.01 95 1008.5
20260904061206 74 245 0.0 0.0 0.00 0.25 0.01 95 1008.5
20260904061019 74 245 0.0 0.0 0.00 0.25 0.01 95 1008.7
20260904060836 74 245 0.0 0.0 0.00 0.26 0.01 95 1008.6
20260904060627 74 245 0.0 0.0 0.00 0.26 0.01 95 1008.6
20260904060526 74 245 0.0 0.0 0.00 0.27 0.01 95 1008.6
20260904060519 74 245 0.0 0.0 0.00 0.27 0.01 95 1008.8
20260904060426 74 245 0.0 0.0 0.00 0.27 0.01 95 1008.6
20260904060325 74 245 0.0 0.0 0.00 0.27 0.01 95 1008.7
20260904060225 74 245 0.0 0.0 0.00 0.27 0.01 95 1008.7
20260904060125 74 245 0.0 0.0 0.00 0.27 0.01 95 1008.7
20260904060025 74 245 0.0 0.0 0.00 0.28 0.01 95 1008.8
20260904060019 74 245 0.0 0.0 0.00 0.28 0.01 95 1009.1
20260904055924 74 245 0.0 0.0 0.00 0.28 0.01 95 1008.9
20260904055822 74 245 0.0 0.0 0.00 0.28 0.01 95 1008.8
20260904055722 74 245 0.0 0.0 0.00 0.28 0.01 95 1008.8
20260904055622 74 245 0.0 0.0 0.00 0.29 0.01 95 1008.8
20260904055549 74 245 0.0 0.0 0.00 0.29 0.01 95 1009.1
20260904055521 74 245 0.0 0.0 0.00 0.29 0.01 95 1008.9
20260904055419 74 245 0.0 0.0 0.00 0.29 0.01 95 1008.9
20260904055333 74 245 0.0 0.0 0.00 0.29 0.01 95 1009.0
20260904055328 74 245 0.0 0.0 0.00 0.29 0.01 95 1009.0
20260904055117 74 245 0.0 0.0 0.00 0.30 0.01 95 1009.0
20260904055019 74 245 0.0 0.0 0.00 0.31 0.01 95 1009.3
20260904055017 74 245 0.0 0.0 0.00 0.31 0.01 95 1009.1
20260904054916 74 245 0.0 0.0 0.00 0.33 0.01 95 1009.1
20260904054816 74 245 0.0 0.0 0.00 0.36 0.01 95 1009.1
20260904054715 74 245 0.0 0.0 0.00 0.39 0.01 95 1009.1
20260904054615 74 245 0.0 0.0 0.00 0.44 0.01 95 1009.2
20260904054537 74 245 0.0 0.0 0.00 0.44 0.01 95 1009.3
20260904054519 74 245 0.0 0.0 0.00 0.46 0.01 95 1009.4
20260904054515 74 245 0.0 0.0 0.00 0.48 0.01 95 1009.3
20260904054414 74 245 0.0 0.0 0.00 0.51 0.01 95 1009.2
20260904054328 74 245 0.0 0.0 0.00 0.53 0.01 95 1009.3
20260904054322 74 245 0.0 0.0 0.00 0.53 0.01 95 1009.3
20260904054113 74 245 0.0 0.0 0.00 0.54 0.01 95 1009.4
20260904054019 74 245 0.0 0.0 0.00 0.54 0.01 95 1009.6
20260904054012 74 245 0.0 0.0 0.00 0.55 0.01 95 1009.4
20260904053914 74 245 0.0 0.0 0.00 0.55 0.01 95 1009.4
20260904053813 74 245 0.0 0.0 0.00 0.56 0.01 95 1009.5
20260904053712 74 245 0.0 0.0 0.00 0.56 0.01 95 1009.6
20260904053627 74 245 0.0 0.0 0.00 0.57 0.01 95 1009.7
20260904053618 74 245 0.0 0.0 0.00 0.57 0.01 95 1009.7
20260904053534 74 245 0.0 0.0 0.00 0.57 0.01 95 1009.9
20260904053415 74 245 0.0 0.0 0.00 0.57 0.01 95 1009.7
20260904053406 74 245 0.0 0.0 0.00 0.58 0.01 95 1009.7
20260904053209 74 233 0.0 0.0 0.00 0.58 0.01 95 1009.7
20260904053146 74 232 0.0 0.0 0.00 0.58 0.01 95 1009.7
20260904053034 74 232 0.0 0.0 0.00 0.58 0.01 95 1010.0
20260904053005 74 232 0.0 0.0 0.00 0.58 0.01 95 1009.7
20260904052905 74 232 0.0 0.0 0.00 0.59 0.01 95 1009.8
20260904052806 74 232 0.0 0.0 0.00 0.59 0.01 95 1009.8
20260904052737 74 232 0.0 0.0 0.00 0.60 0.01 95 1009.8
20260904052733 74 232 0.0 0.0 0.00 0.60 0.01 95 1009.7
20260904052728 74 232 0.0 0.0 0.00 0.59 0.01 95 1009.8
20260904052611 74 232 0.0 0.0 0.00 0.60 0.01 95 1009.8
20260904052519 74 232 0.0 0.0 0.00 0.60 0.01 95 1009.9
20260904052404 74 232 0.0 0.0 0.00 0.60 0.01 95 1009.7
20260904052306 74 232 0.0 0.0 0.00 0.60 0.01 95 1009.7
20260904052203 74 232 0.0 0.0 0.00 0.60 0.01 95 1009.7
20260904052034 74 232 0.0 0.0 0.00 0.60 0.01 95 1009.7
20260904052019 74 232 0.0 0.0 0.00 0.60 0.01 95 1009.8
20260904052002 74 232 0.0 0.0 0.00 0.60 0.01 95 1009.6
20260904051902 74 232 0.0 0.0 0.00 0.61 0.01 95 1009.6
20260904051758 74 232 0.0 0.0 0.00 0.61 0.01 95 1009.5
20260904051700 74 232 0.0 0.0 0.00 0.61 0.01 95 1009.5
20260904051533 74 232 0.0 0.0 0.00 0.61 0.01 95 1009.4
20260904051519 74 232 0.0 0.0 0.00 0.61 0.01 95 1009.6
20260904051500 74 232 0.0 0.0 0.00 0.61 0.01 95 1009.4
20260904051358 74 232 0.0 0.0 0.00 0.61 0.01 95 1009.4
20260904051258 74 232 0.0 0.0 0.00 0.61 0.01 95 1009.4
20260904051158 74 232 0.0 0.0 0.00 0.61 0.01 95 1009.4
20260904051031 74 232 0.0 0.0 0.00 0.61 0.01 95 1009.3
20260904051019 74 232 0.0 0.0 0.00 0.61 0.01 95 1009.5
20260904050956 74 232 0.0 0.0 0.00 0.61 0.01 95 1009.3
20260904050856 74 232 0.0 0.0 0.01 0.61 0.01 95 1009.3
20260904050755 74 232 0.0 0.0 0.01 0.61 0.01 95 1009.3
20260904050655 74 232 0.0 0.0 0.01 0.61 0.01 95 1009.3
20260904050613 74 232 0.0 0.0 0.01 0.61 0.01 94 1009.3
20260904050601 74 232 0.0 0.0 0.01 0.61 0.01 94 1009.3
20260904050519 74 232 0.0 0.0 0.01 0.61 0.01 94 1009.5
20260904050354 74 232 0.0 0.0 0.01 0.61 0.01 94 1009.3
20260904050252 74 232 0.0 0.0 0.01 0.61 0.01 94 1009.2
20260904050206 74 232 0.0 0.0 0.01 0.61 0.01 94 1009.2
20260904050201 74 232 0.0 0.0 0.01 0.61 0.01 94 1009.2
20260904050029 74 232 0.0 0.0 0.01 0.61 0.01 94 1009.2
20260904050020 74 232 0.0 0.0 0.01 0.61 0.01 94 1009.2
20260904050013 74 232 0.0 0.0 0.01 0.61 0.01 94 1009.2
20260904045749 74 232 0.0 0.0 0.01 0.61 0.01 94 1009.2
20260904045649 74 232 0.0 0.0 0.01 0.61 0.01 94 1009.1
20260904045635 74 232 0.0 0.0 0.01 0.61 0.01 94 1009.0
20260904045519 74 232 0.0 0.0 0.01 0.61 0.01 94 1009.2
20260904045447 74 232 0.0 0.0 0.01 0.61 0.01 94 1009.0
20260904045400 74 232 0.0 0.0 0.01 0.61 0.01 94 1009.0
20260904045356 74 232 0.0 0.0 0.01 0.61 0.01 94 1009.0
20260904045146 74 232 0.0 0.0 0.01 0.61 0.01 94 1009.0
20260904045025 74 232 0.0 0.0 0.01 0.61 0.01 94 1009.0
20260904045019 74 232 0.0 0.0 0.01 0.61 0.01 94 1009.2
20260904044946 74 232 0.0 0.0 0.01 0.61 0.01 94 1009.0
20260904044845 74 232 0.0 0.0 0.01 0.61 0.01 94 1009.0
20260904044817 74 232 0.0 0.0 0.01 0.61 0.01 94 1009.1
20260904044745 74 232 0.0 0.0 0.01 0.61 0.01 94 1009.0
20260904044714 74 232 0.0 0.0 0.01 0.61 0.01 94 1009.1
20260904044708 74 232 0.0 0.0 0.01 0.61 0.01 94 1009.1
20260904044659 74 232 0.0 0.0 0.01 0.61 0.01 94 1009.1
20260904044534 74 232 0.0 0.0 0.01 0.61 0.01 94 1009.3
20260904044344 74 232 0.0 0.0 0.01 0.61 0.01 94 1009.1
20260904044248 74 232 0.0 0.0 0.01 0.61 0.01 94 1009.0
20260904044244 74 232 0.0 0.0 0.01 0.61 0.01 94 1009.0
20260904044143 74 232 0.0 0.0 0.01 0.61 0.01 94 1009.0
20260904044131 74 232 0.0 0.0 0.01 0.61 0.01 94 1009.0
20260904044019 74 232 0.0 0.0 0.01 0.61 0.01 94 1009.2
20260904044017 74 232 0.0 0.0 0.01 0.61 0.01 94 1009.0
20260904044012 74 232 0.0 0.0 0.01 0.61 0.01 94 1009.0
20260904043749 74 232 0.0 0.0 0.01 0.61 0.01 94 1009.1
20260904043523 74 232 0.0 0.0 0.01 0.61 0.01 94 1009.1
20260904043519 74 232 0.0 0.0 0.01 0.61 0.01 94 1009.3
20260904043439 74 232 0.0 0.0 0.01 0.61 0.01 94 1009.1
20260904043339 74 232 0.0 0.0 0.01 0.61 0.01 94 1009.1
20260904043251 74 232 0.0 0.0 0.01 0.61 0.01 94 1009.1
20260904043247 74 232 0.0 0.0 0.01 0.61 0.01 94 1009.0
20260904043057 74 232 0.0 0.0 0.01 0.61 0.01 94 1009.1
20260904043044 74 232 0.0 0.0 0.01 0.61 0.01 94 1009.1
20260904043019 74 232 0.0 0.0 0.01 0.61 0.01 94 1009.3
20260904042836 74 232 0.0 0.0 0.01 0.61 0.01 94 1009.1
20260904042736 74 232 0.0 0.0 0.01 0.61 0.01 94 1009.2
20260904042703 74 232 0.0 0.0 0.01 0.61 0.01 94 1009.2
20260904042542 74 232 0.0 0.0 0.01 0.61 0.01 94 1009.2
20260904042519 74 232 0.0 0.0 0.01 0.61 0.01 94 1009.4
20260904042333 74 232 0.0 0.0 0.01 0.61 0.01 94 1009.3
20260904042233 74 232 0.0 0.0 0.01 0.61 0.01 94 1009.3
20260904042133 74 232 0.0 0.0 0.01 0.61 0.01 94 1009.3
20260904042019 74 232 0.0 0.0 0.01 0.61 0.01 94 1009.6
20260904041932 74 232 0.0 0.0 0.01 0.61 0.01 94 1009.4
20260904041832 74 232 0.0 0.0 0.01 0.61 0.01 94 1009.4
20260904041731 74 232 0.0 0.0 0.01 0.61 0.01 94 1009.5
20260904041644 74 232 0.0 0.0 0.01 0.61 0.01 94 1009.6
20260904041640 74 232 0.0 0.0 0.01 0.61 0.01 94 1009.6
20260904041519 74 232 0.0 0.0 0.01 0.61 0.01 94 1009.8
20260904041517 74 232 0.0 0.0 0.01 0.61 0.01 94 1009.6
20260904041430 74 232 0.0 0.0 0.01 0.61 0.01 94 1009.6
20260904041228 74 232 0.0 0.0 0.01 0.61 0.01 94 1009.8
20260904041128 74 232 0.0 0.0 0.01 0.61 0.01 94 1009.8
20260904041045 74 232 0.0 0.0 0.01 0.61 0.01 94 1009.8
20260904041033 74 232 0.0 0.0 0.01 0.61 0.01 94 1009.8
20260904041019 74 232 0.0 0.0 0.01 0.61 0.01 94 1010.0
20260904040827 74 232 0.0 0.0 0.00 0.60 0.00 93 1009.8
20260904040725 74 232 0.0 0.0 0.00 0.60 0.00 93 1009.8
20260904040625 74 232 0.0 0.0 0.00 0.60 0.00 93 1009.9
20260904040544 74 232 0.0 0.0 0.00 0.60 0.00 93 1009.8
20260904040531 74 232 0.0 0.0 0.00 0.60 0.00 93 1009.9
20260904040519 74 232 0.0 0.0 0.00 0.60 0.00 93 1010.0
20260904040324 74 232 0.0 0.0 0.00 0.60 0.00 93 1009.8
20260904040223 74 232 0.0 0.0 0.00 0.60 0.00 93 1009.8
20260904040136 74 232 0.0 0.0 0.00 0.60 0.00 93 1009.8
20260904040132 74 232 0.0 0.0 0.00 0.60 0.00 93 1009.8
20260904040019 74 232 0.0 0.0 0.00 0.60 0.00 93 1010.0
20260904040012 74 232 0.0 0.0 0.00 0.60 0.00 93 1009.8
20260904035922 74 232 0.0 0.0 0.00 0.60 0.60 93 1009.8
20260904035821 74 232 0.0 0.0 0.00 0.60 0.60 93 1009.8
20260904035720 74 232 0.0 0.0 0.00 0.60 0.60 93 1009.8
20260904035620 74 232 0.0 0.0 0.00 0.60 0.60 93 1009.8
20260904035519 74 232 0.0 0.0 0.00 0.60 0.60 93 1010.0
20260904035513 74 232 0.0 0.0 0.00 0.60 0.60 93 1009.9
20260904035430 74 232 0.0 0.0 0.00 0.60 0.60 93 1009.8
20260904035425 74 232 0.0 0.0 0.00 0.60 0.60 93 1009.9
20260904035216 74 232 0.0 0.0 0.00 0.60 0.60 93 1009.8
20260904035115 74 232 0.0 0.0 0.00 0.60 0.60 93 1009.8
20260904035056 74 232 0.0 0.0 0.00 0.60 0.60 93 1009.7
20260904035044 74 232 0.0 0.0 0.00 0.60 0.60 93 1009.8
20260904035019 74 232 0.0 0.0 0.00 0.60 0.60 93 1009.9
20260904034932 74 232 0.0 0.0 0.00 0.60 0.60 93 1009.8
20260904034613 74 232 0.0 0.0 0.00 0.60 0.60 93 1009.7
20260904034546 74 232 0.0 0.0 0.00 0.60 0.60 93 1009.7
20260904034542 74 232 0.0 0.0 0.00 0.60 0.60 93 1009.8
20260904034532 74 232 0.0 0.0 0.00 0.60 0.60 93 1009.7
20260904034519 74 232 0.0 0.0 0.00 0.60 0.60 93 1009.8
20260904034225 74 232 0.0 0.0 0.00 0.60 0.60 93 1009.8
20260904034221 74 232 0.0 0.0 0.00 0.60 0.60 93 1009.8
20260904034049 74 232 0.0 0.0 0.00 0.60 0.60 93 1009.9
20260904034013 74 232 0.0 0.0 0.00 0.60 0.60 93 1009.8
20260904033910 74 232 0.0 0.0 0.00 0.60 0.60 93 1009.8
20260904033810 74 232 0.0 0.0 0.00 0.60 0.60 93 1009.8
20260904033708 74 232 0.0 0.0 0.00 0.60 0.60 93 1009.8
20260904033608 74 232 0.0 0.0 0.00 0.60 0.60 93 1009.8
20260904033519 74 232 0.0 0.0 0.00 0.60 0.60 93 1010.0
20260904033508 74 232 0.0 0.0 0.00 0.60 0.60 93 1009.9
20260904033408 74 232 0.0 0.0 0.00 0.60 0.60 93 1009.9
20260904033306 74 232 0.0 0.0 0.00 0.60 0.60 93 1009.9
20260904033206 74 232 0.0 0.0 0.00 0.60 0.60 93 1009.9
20260904033106 74 232 0.0 0.0 0.00 0.60 0.60 93 1010.0
20260904033019 74 232 0.0 0.0 0.00 0.60 0.60 93 1010.0
20260904033005 74 232 0.0 0.0 0.00 0.60 0.60 93 1009.9
20260904032905 74 232 0.0 0.0 0.00 0.60 0.60 93 1010.0
20260904032803 74 232 0.0 0.0 0.00 0.60 0.60 93 1010.0
20260904032716 74 232 0.0 0.0 0.00 0.60 0.60 93 1010.0
20260904032712 74 232 0.0 0.0 0.00 0.60 0.60 93 1010.0
20260904032519 74 232 0.0 0.0 0.00 0.60 0.60 93 1010.1
20260904032508 74 232 0.0 0.0 0.00 0.60 0.60 93 1010.0
20260904032502 74 232 0.0 0.0 0.00 0.60 0.60 93 1010.0
20260904032402 74 232 0.0 0.0 0.00 0.60 0.60 93 1010.1
20260904032318 74 232 0.0 0.0 0.00 0.60 0.60 93 1010.1
20260904032314 74 232 0.0 0.0 0.00 0.60 0.60 93 1010.1
20260904032310 74 232 0.0 0.0 0.00 0.60 0.60 93 1010.1
20260904032116 74 232 0.0 0.0 0.00 0.60 0.60 93 1010.1
20260904032019 74 232 0.0 0.0 0.00 0.60 0.60 93 1010.3
20260904032000 74 232 0.0 0.0 0.00 0.60 0.60 93 1010.2
20260904031900 74 232 0.0 0.0 0.00 0.60 0.60 93 1010.2
20260904031759 74 232 0.0 0.0 0.00 0.60 0.60 93 1010.2
20260904031659 74 232 0.0 0.0 0.00 0.60 0.60 93 1010.2
20260904031559 74 232 0.0 0.0 0.00 0.60 0.60 93 1010.3
20260904031519 74 232 0.0 0.0 0.00 0.60 0.60 93 1010.4
20260904031506 74 232 0.0 0.0 0.00 0.60 0.60 93 1010.3
20260904031458 74 232 0.0 0.0 0.00 0.60 0.60 93 1010.3
20260904031358 74 232 0.0 0.0 0.00 0.60 0.60 92 1010.3
20260904031258 74 232 0.0 0.0 0.00 0.60 0.60 92 1010.4
20260904031229 74 232 0.0 0.0 0.00 0.60 0.60 92 1010.4
20260904031224 74 232 0.0 0.0 0.00 0.60 0.60 92 1010.4
20260904031019 74 232 0.0 0.0 0.00 0.60 0.60 92 1010.5
20260904030956 74 232 0.0 0.0 0.00 0.60 0.60 92 1010.4
20260904030856 74 232 0.0 0.0 0.00 0.60 0.60 92 1010.4
20260904030756 74 232 0.0 0.0 0.00 0.60 0.60 92 1010.4
20260904030655 74 232 0.0 0.0 0.00 0.60 0.60 92 1010.4
20260904030614 74 232 0.0 0.0 0.00 0.60 0.60 92 1010.4
20260904030600 74 232 0.0 0.0 0.00 0.60 0.60 92 1010.4
20260904030519 74 232 0.0 0.0 0.00 0.60 0.60 92 1010.5
20260904030354 74 232 0.0 0.0 0.00 0.60 0.60 92 1010.4
20260904030253 74 232 0.0 0.0 0.00 0.60 0.60 92 1010.3
20260904030203 74 232 0.0 0.0 0.00 0.60 0.60 92 1010.3
20260904030159 74 232 0.0 0.0 0.00 0.60 0.60 92 1010.3
20260904030019 75 232 0.0 0.0 0.00 0.60 0.60 92 1010.4
20260904030006 74 232 0.0 0.0 0.00 0.60 0.60 92 1010.3
20260904025949 74 232 0.0 0.0 0.00 0.60 0.60 92 1010.3
20260904025848 74 232 0.0 0.0 0.00 0.60 0.60 92 1010.4
20260904025747 74 232 0.0 0.0 0.00 0.60 0.60 92 1010.3
20260904025647 74 232 0.0 0.0 0.00 0.60 0.60 92 1010.4
20260904025547 74 232 0.0 0.0 0.00 0.60 0.60 92 1010.3
20260904025519 75 232 0.0 0.0 0.00 0.60 0.60 92 1010.4
20260904025507 74 232 0.0 0.0 0.00 0.60 0.60 92 1010.3
20260904025446 74 232 0.0 0.0 0.00 0.60 0.60 92 1010.3
20260904025346 74 232 0.0 0.0 0.00 0.60 0.60 92 1010.2
20260904025245 75 232 0.0 0.0 0.00 0.60 0.60 92 1010.3
20260904025145 75 232 0.0 0.0 0.00 0.60 0.60 92 1010.2
20260904025044 75 232 0.0 0.0 0.00 0.60 0.60 92 1010.2
20260904025019 75 232 0.0 0.0 0.00 0.60 0.60 92 1010.3
20260904025005 75 232 0.0 0.0 0.00 0.60 0.60 92 1010.2
20260904024944 75 232 0.0 0.0 0.00 0.60 0.60 92 1010.2
20260904024843 75 232 0.0 0.0 0.00 0.60 0.60 92 1010.2
20260904024743 75 232 0.0 0.0 0.00 0.60 0.60 92 1010.2
20260904024643 75 232 0.0 0.0 0.00 0.60 0.60 92 1010.2
20260904024543 75 232 0.0 0.0 0.00 0.60 0.60 92 1010.2
20260904024519 75 232 0.0 0.0 0.00 0.60 0.60 92 1010.3
20260904024505 75 232 0.0 0.0 0.00 0.60 0.60 92 1010.2
20260904024442 75 232 0.0 0.0 0.00 0.60 0.60 91 1010.2
20260904024348 75 232 0.0 0.0 0.00 0.60 0.60 91 1010.1
20260904024344 75 232 0.0 0.0 0.00 0.60 0.60 91 1010.2
20260904024335 75 232 0.0 0.0 0.00 0.60 0.60 91 1010.2
20260904024222 75 232 0.0 0.0 0.00 0.60 0.60 91 1010.2
20260904024019 75 232 0.0 0.0 0.00 0.60 0.60 91 1010.2
20260904023938 75 232 0.0 0.0 0.00 0.60 0.60 91 1010.1
20260904023837 75 232 0.0 0.0 0.00 0.60 0.60 91 1010.1
20260904023736 75 232 0.0 0.0 0.00 0.60 0.60 91 1010.1
20260904023635 75 232 0.0 0.0 0.00 0.60 0.60 91 1010.0
20260904023549 75 232 0.0 0.0 0.00 0.60 0.60 91 1010.1
20260904023535 75 232 0.0 0.0 0.00 0.60 0.60 91 1010.1
20260904023504 75 232 0.0 0.0 0.00 0.60 0.60 91 1010.0
20260904023435 75 232 0.0 0.0 0.00 0.60 0.60 91 1010.0
20260904023334 75 232 0.0 0.0 0.00 0.60 0.60 91 1010.1
20260904023235 75 232 0.0 0.0 0.00 0.60 0.60 91 1010.0
20260904023134 75 232 0.0 0.0 0.00 0.60 0.60 91 1010.1
20260904023019 75 232 0.0 0.0 0.00 0.60 0.60 91 1010.1
20260904023003 75 232 0.0 0.0 0.00 0.60 0.60 91 1010.0
20260904022934 75 232 0.0 0.0 0.00 0.60 0.60 91 1010.0
20260904022832 75 232 0.0 0.0 0.00 0.60 0.60 91 1010.0
20260904022732 75 232 0.0 0.0 0.00 0.60 0.60 91 1010.0
20260904022631 75 232 0.0 0.0 0.00 0.60 0.60 91 1010.0
20260904022519 75 232 0.0 0.0 0.00 0.60 0.60 91 1010.1
20260904022502 75 232 0.0 0.0 0.00 0.60 0.60 91 1010.0
20260904022443 75 232 0.0 0.0 0.00 0.60 0.60 91 1010.1
20260904022439 75 232 0.0 0.0 0.00 0.60 0.60 91 1010.0
20260904022230 75 232 0.0 0.0 0.00 0.60 0.60 91 1010.1
20260904022211 75 232 0.0 0.0 0.00 0.60 0.60 90 1010.2
20260904022206 75 232 0.0 0.0 0.00 0.60 0.60 90 1010.1
20260904022045 75 232 0.0 0.0 0.00 0.60 0.60 90 1010.2
20260904022019 75 232 0.0 0.0 0.00 0.60 0.60 90 1010.3
20260904021728 75 232 0.0 0.0 0.00 0.60 0.60 90 1010.2
20260904021628 75 232 0.0 0.0 0.00 0.60 0.60 90 1010.2
20260904021526 75 232 0.0 0.0 0.00 0.60 0.60 90 1010.2
20260904021519 75 232 0.0 0.0 0.00 0.60 0.60 90 1010.2
20260904021502 75 232 0.0 0.0 0.00 0.60 0.60 90 1010.1
20260904021426 75 232 0.0 0.0 0.00 0.60 0.60 90 1010.1
20260904021326 75 232 0.0 0.0 0.00 0.60 0.60 90 1010.2
20260904021226 75 232 0.0 0.0 0.00 0.60 0.60 90 1010.3
20260904021126 75 232 0.0 0.0 0.00 0.60 0.60 90 1010.3
20260904021045 75 232 0.0 0.0 0.00 0.60 0.60 90 1010.3
20260904021034 75 232 0.0 0.0 0.00 0.60 0.60 90 1010.4
20260904021032 75 232 0.0 0.0 0.00 0.60 0.60 90 1010.3
20260904020904 75 232 0.0 0.0 0.00 0.60 0.60 90 1010.4
20260904020900 76 232 0.0 0.0 0.00 0.60 0.60 90 1010.3
20260904020856 76 232 0.0 0.0 0.00 0.60 0.60 90 1010.4
20260904020851 75 232 0.0 0.0 0.00 0.60 0.60 90 1010.4
20260904020519 76 232 0.0 0.0 0.00 0.60 0.60 90 1010.5
20260904020501 76 232 0.0 0.0 0.00 0.60 0.60 90 1010.4
20260904020434 76 232 0.0 0.0 0.00 0.60 0.60 90 1010.4
20260904020430 76 232 0.0 0.0 0.00 0.60 0.60 90 1010.4
20260904020221 76 232 0.0 0.0 0.00 0.60 0.60 90 1010.4
20260904020120 76 232 0.0 0.0 0.00 0.60 0.60 90 1010.4
20260904020034 76 232 0.0 0.0 0.00 0.60 0.60 90 1010.6
20260904020003 76 232 0.0 0.0 0.00 0.60 0.60 90 1010.5
20260904015941 76 232 0.0 0.0 0.00 0.60 0.60 90 1010.5
20260904015828 76 232 0.0 0.0 0.00 0.60 0.60 90 1010.5
20260904015617 76 232 0.0 0.0 0.00 0.60 0.60 90 1010.6
20260904015519 76 232 0.0 0.0 0.00 0.60 0.60 90 1010.7
20260904015503 76 232 0.0 0.0 0.00 0.60 0.60 90 1010.6
20260904015416 76 232 0.0 0.0 0.00 0.60 0.60 90 1010.6
20260904015316 76 232 0.0 0.0 0.00 0.60 0.60 90 1010.7
20260904015215 76 232 0.0 0.0 0.00 0.60 0.60 90 1010.7
20260904015115 76 232 0.0 0.0 0.00 0.60 0.60 90 1010.7
20260904015019 76 232 0.0 0.0 0.00 0.60 0.60 89 1010.8
20260904015014 76 232 0.0 0.0 0.00 0.60 0.60 89 1010.7
20260904015002 76 232 0.0 0.0 0.00 0.60 0.60 89 1010.7
20260904014926 76 232 0.0 0.0 0.00 0.60 0.60 89 1010.7
20260904014922 76 232 0.0 0.0 0.00 0.60 0.60 89 1010.7
20260904014712 76 232 0.0 0.0 0.00 0.60 0.60 89 1010.8
20260904014612 76 232 0.0 0.0 0.00 0.60 0.60 89 1010.7
20260904014534 76 232 0.0 0.0 0.00 0.60 0.60 89 1010.7
20260904014512 76 232 0.0 0.0 0.00 0.60 0.60 89 1010.7
20260904014501 76 232 0.0 0.0 0.00 0.60 0.60 89 1010.7
20260904014410 76 232 0.0 0.0 0.00 0.60 0.60 89 1010.7
20260904014310 76 232 0.0 0.0 0.00 0.60 0.60 89 1010.6
20260904014209 76 232 0.0 0.0 0.00 0.60 0.60 89 1010.6
20260904014109 76 232 0.0 0.0 0.00 0.60 0.60 89 1010.5
20260904014023 76 232 0.0 0.0 0.00 0.60 0.60 89 1010.5
20260904014019 76 232 0.0 0.0 0.00 0.60 0.60 89 1010.6
20260904014016 76 232 0.0 0.0 0.00 0.60 0.60 89 1010.6
20260904013807 76 232 0.0 0.0 0.00 0.60 0.60 89 1010.6
20260904013708 76 232 0.0 0.0 0.00 0.60 0.60 89 1010.6
20260904013607 76 232 0.0 0.0 0.00 0.60 0.60 89 1010.6
20260904013519 76 232 0.0 0.0 0.00 0.60 0.60 89 1010.7
20260904013507 76 232 0.0 0.0 0.00 0.60 0.60 89 1010.7
20260904013456 76 232 0.0 0.0 0.00 0.60 0.60 89 1010.7
20260904013406 76 232 0.0 0.0 0.00 0.60 0.60 89 1010.6
20260904013305 76 232 0.0 0.0 0.00 0.60 0.60 89 1010.7
20260904013205 76 232 0.0 0.0 0.00 0.60 0.60 89 1010.7
20260904013105 76 232 0.0 0.0 0.00 0.60 0.60 89 1010.7
20260904013019 76 232 0.0 0.0 0.00 0.60 0.60 89 1010.7
20260904012954 76 232 0.0 0.0 0.00 0.60 0.60 89 1010.7
20260904012904 76 232 0.0 0.0 0.00 0.60 0.60 89 1010.6
20260904012803 76 232 0.0 0.0 0.00 0.60 0.60 89 1010.7
20260904012703 76 232 0.0 0.0 0.00 0.60 0.60 89 1010.6
20260904012601 76 232 0.0 0.0 0.00 0.60 0.60 89 1010.7
20260904012519 76 232 0.0 0.0 0.00 0.60 0.60 89 1010.6
20260904012455 76 232 0.0 0.0 0.00 0.60 0.60 89 1010.6
20260904012414 76 232 0.0 0.0 0.00 0.60 0.60 89 1010.7
20260904012410 76 232 0.0 0.0 0.00 0.60 0.60 89 1010.6
20260904012200 76 232 0.0 0.0 0.00 0.60 0.60 89 1010.6
20260904012100 76 232 0.0 0.0 0.00 0.60 0.60 89 1010.6
20260904012034 76 232 0.0 0.0 0.00 0.60 0.60 89 1010.6
20260904012019 76 232 0.0 0.0 0.00 0.60 0.60 89 1010.7
20260904012007 76 232 0.0 0.0 0.00 0.60 0.60 89 1010.6
20260904011759 76 232 0.0 0.0 0.00 0.60 0.60 89 1010.7
20260904011658 76 232 0.0 0.0 0.00 0.60 0.60 89 1010.7
20260904011558 76 232 0.0 0.0 0.00 0.60 0.60 89 1010.8
20260904011519 76 232 0.0 0.0 0.00 0.60 0.60 89 1010.7
20260904011517 76 232 0.0 0.0 0.00 0.60 0.60 89 1010.7
20260904011405 76 232 0.0 0.0 0.00 0.60 0.60 89 1010.8
20260904011155 76 232 0.0 0.0 0.00 0.60 0.60 89 1010.8
20260904011055 76 232 0.0 0.0 0.00 0.60 0.60 89 1010.8
20260904011019 77 232 0.0 0.0 0.00 0.60 0.60 89 1010.9
20260904011014 76 232 0.0 0.0 0.00 0.60 0.60 89 1010.9
20260904011004 76 232 0.0 0.0 0.00 0.60 0.60 89 1010.9
20260904010753 76 232 0.0 0.0 0.00 0.60 0.60 88 1010.9
20260904010706 76 232 0.0 0.0 0.00 0.60 0.60 88 1011.0
20260904010702 77 232 0.0 0.0 0.00 0.60 0.60 88 1011.0
20260904010549 77 232 0.0 0.0 0.00 0.60 0.60 88 1011.0
20260904010452 77 232 0.0 0.0 0.00 0.60 0.60 88 1011.0
20260904010400 77 232 0.0 0.0 0.00 0.60 0.60 88 1011.0
20260904010351 77 232 0.0 0.0 0.00 0.60 0.60 88 1011.0
20260904010240 77 232 0.0 0.0 0.00 0.60 0.60 88 1010.9
20260904010234 77 232 0.0 0.0 0.00 0.60 0.60 88 1011.0
20260904010115 77 232 0.0 0.0 0.00 0.60 0.60 88 1010.9
20260904010019 77 232 0.0 0.0 0.00 0.60 0.60 88 1010.9
20260904005857 77 232 0.0 0.0 0.00 0.60 0.60 87 1010.9
20260904005647 77 232 0.0 0.0 0.00 0.60 0.60 87 1010.7
20260904005549 77 232 0.0 0.0 0.00 0.60 0.60 87 1010.7
20260904005547 77 232 0.0 0.0 0.00 0.60 0.60 87 1010.7
20260904005446 77 232 0.0 0.0 0.00 0.60 0.60 87 1010.7
20260904005346 77 232 0.0 0.0 0.00 0.60 0.60 87 1010.7
20260904005246 77 232 0.0 0.0 0.00 0.60 0.60 87 1010.7
20260904005145 77 232 0.0 0.0 0.00 0.60 0.60 87 1010.8
20260904005045 77 232 0.0 0.0 0.00 0.60 0.60 87 1010.8
20260904005019 77 232 0.0 0.0 0.00 0.60 0.60 87 1010.9
20260904004944 77 232 0.0 0.0 0.00 0.60 0.60 87 1010.9
20260904004857 77 232 0.0 0.0 0.00 0.60 0.60 87 1010.9
20260904004853 77 232 0.0 0.0 0.00 0.60 0.60 87 1010.9
20260904004643 77 232 0.0 0.0 0.00 0.60 0.60 87 1010.9
20260904004543 77 232 0.0 0.0 0.00 0.60 0.60 87 1010.8
20260904004519 77 232 0.0 0.0 0.00 0.60 0.60 87 1010.8
20260904004500 77 232 0.0 0.0 0.00 0.60 0.60 87 1010.8
20260904004449 77 232 0.0 0.0 0.00 0.60 0.60 87 1010.8
20260904004239 77 232 0.0 0.0 0.00 0.60 0.60 87 1010.8
20260904004139 77 232 0.0 0.0 0.00 0.60 0.60 87 1010.8
20260904004039 77 232 0.0 0.0 0.00 0.60 0.60 87 1010.8
20260904004019 77 232 0.0 0.0 0.00 0.60 0.60 87 1010.7
20260904003938 77 232 0.0 0.0 0.00 0.60 0.60 87 1010.7
20260904003835 77 232 0.0 0.0 0.00 0.60 0.60 87 1010.7
20260904003735 77 232 0.0 0.0 0.00 0.60 0.60 86 1010.8
20260904003648 77 232 0.0 0.0 0.00 0.60 0.60 86 1010.8
20260904003644 77 232 0.0 0.0 0.00 0.60 0.60 86 1010.8
20260904003519 77 232 0.0 0.0 0.00 0.60 0.60 86 1010.8
20260904003434 77 232 0.0 0.0 0.00 0.60 0.60 86 1010.8
20260904003345 77 232 0.0 0.0 0.00 0.60 0.60 86 1010.8
20260904003341 77 232 0.0 0.0 0.00 0.60 0.60 86 1010.8
20260904003132 77 232 0.0 0.0 0.00 0.60 0.60 86 1010.8
20260904003031 78 232 0.0 0.0 0.00 0.60 0.60 86 1010.9
20260904003019 78 232 0.0 0.0 0.00 0.60 0.60 86 1010.8
20260904002931 78 232 0.0 0.0 0.00 0.60 0.60 86 1010.8
20260904002843 78 232 0.0 0.0 0.00 0.60 0.60 86 1010.8
20260904002839 78 232 0.0 0.0 0.00 0.60 0.60 86 1010.8
20260904002702 78 232 0.0 0.0 0.00 0.60 0.60 86 1010.7
20260904002657 78 232 0.0 0.0 0.00 0.60 0.60 86 1010.7
20260904002652 78 232 0.0 0.0 0.00 0.60 0.60 86 1010.8
20260904002534 78 232 0.0 0.0 0.00 0.60 0.60 86 1010.7
20260904002520 78 232 0.0 0.0 0.00 0.60 0.60 86 1010.7
20260904002327 78 232 0.0 0.0 0.00 0.60 0.60 86 1010.6
20260904002227 78 232 0.0 0.0 0.00 0.60 0.60 86 1010.6
20260904002126 78 232 0.0 0.0 0.00 0.60 0.60 86 1010.5
20260904002026 78 232 0.0 0.0 0.00 0.60 0.60 85 1010.4
20260904002019 78 232 0.0 0.0 0.00 0.60 0.60 85 1010.4
20260904001925 78 232 0.0 0.0 0.00 0.60 0.60 85 1010.4
20260904001825 78 232 0.0 0.0 0.00 0.60 0.60 85 1010.4
20260904001725 78 232 0.0 0.0 0.00 0.60 0.60 85 1010.4
20260904001624 78 232 0.0 0.0 0.00 0.60 0.60 85 1010.4
20260904001525 78 232 0.0 0.0 0.00 0.60 0.60 85 1010.3
20260904001519 78 232 0.0 0.0 0.00 0.60 0.60 85 1010.3
20260904001425 78 232 0.0 0.0 0.00 0.60 0.60 85 1010.3
20260904001323 78 232 0.0 0.0 0.00 0.60 0.60 84 1010.3
20260904001305 78 232 0.0 0.0 0.00 0.60 0.60 84 1010.3
20260904001259 78 232 0.0 0.0 0.00 0.60 0.60 84 1010.2
20260904001146 78 232 0.0 0.0 0.00 0.60 0.60 84 1010.3
20260904001029 78 232 0.0 0.0 0.00 0.60 0.60 84 1010.3
20260904001019 78 232 0.0 0.0 0.00 0.60 0.60 84 1010.3
20260904000819 78 232 0.0 0.0 0.00 0.60 0.60 84 1010.3
20260904000718 78 232 0.0 0.0 0.00 0.60 0.60 84 1010.3
20260904000618 78 232 0.0 0.0 0.00 0.60 0.60 84 1010.3
20260904000519 78 232 0.0 0.0 0.00 0.60 0.60 84 1010.2
20260904000440 78 232 0.0 0.0 0.00 0.60 0.60 84 1010.2
20260904000418 78 232 0.0 0.0 0.00 0.60 0.60 83 1010.2
20260904000318 78 232 0.0 0.0 0.00 0.60 0.60 83 1010.2
20260904000215 78 232 0.0 0.0 0.00 0.60 0.60 83 1010.2
20260904000203 79 232 0.0 0.0 0.00 0.60 0.60 82 1010.1
20260904000115 78 232 0.0 0.0 0.00 0.60 0.60 83 1010.2
20260904000048 79 232 0.0 0.0 0.00 0.60 0.60 83 1010.2
20260904000019 79 232 0.0 0.0 0.00 0.60 0.60 82 1010.1
20260903235914 79 232 0.0 0.0 0.00 0.60 0.60 82 1010.1
20260903235812 79 232 0.0 0.0 0.00 0.60 0.60 82 1010.1
20260903235712 79 232 0.0 0.0 0.00 0.60 0.60 82 1010.1
20260903235610 79 232 0.0 0.0 0.00 0.60 0.60 82 1010.0
20260903235519 79 232 0.0 0.0 0.00 0.60 0.60 82 1010.1
20260903235510 79 232 0.0 0.0 0.00 0.60 0.60 82 1010.1
20260903235410 79 232 0.0 0.0 0.00 0.60 0.60 82 1010.1
20260903235310 79 232 0.0 0.0 0.00 0.60 0.60 81 1010.1
20260903235209 79 232 0.0 0.0 0.00 0.60 0.60 81 1010.2
20260903235108 79 232 0.0 0.0 0.00 0.60 0.60 81 1010.1
20260903235019 79 232 0.0 0.0 0.00 0.60 0.60 81 1010.1
20260903235008 79 232 0.0 0.0 0.00 0.60 0.60 81 1010.1
20260903234939 79 232 0.0 0.0 0.00 0.60 0.60 81 1010.1
20260903234906 79 232 0.0 0.0 0.00 0.60 0.60 81 1010.1
20260903234806 80 232 0.0 0.0 0.00 0.60 0.60 81 1010.1
20260903234720 80 232 0.0 0.0 0.00 0.60 0.60 81 1010.1
20260903234715 80 232 0.0 0.0 0.00 0.60 0.60 81 1010.1
20260903234519 80 232 0.0 0.0 0.00 0.60 0.60 80 1010.1
20260903234506 80 232 0.0 0.0 0.00 0.60 0.60 80 1010.1
20260903234437 80 232 0.0 0.0 0.00 0.60 0.60 80 1010.1
20260903234405 80 232 0.0 0.0 0.00 0.60 0.60 80 1010.2
20260903234305 80 232 0.0 0.0 0.00 0.60 0.60 81 1010.3
20260903234204 80 232 0.0 0.0 0.00 0.60 0.60 81 1010.3
20260903234152 80 232 0.0 0.0 0.00 0.60 0.60 81 1010.4
20260903234049 81 232 0.0 0.0 0.00 0.60 0.60 80 1010.3
20260903234030 80 232 0.0 0.0 0.00 0.60 0.60 80 1010.3
20260903233810 81 232 0.0 0.0 0.00 0.60 0.60 80 1010.4
20260903233616 81 232 0.0 0.0 0.00 0.60 0.60 80 1010.4
20260903233610 81 232 0.0 0.0 0.00 0.60 0.60 80 1010.4
20260903233519 81 232 0.0 0.0 0.00 0.60 0.60 80 1010.4
20260903233435 81 232 0.0 0.0 0.00 0.60 0.60 80 1010.4
20260903233401 81 232 0.0 0.0 0.00 0.60 0.60 80 1010.4
20260903233300 81 232 0.0 0.0 0.00 0.60 0.60 80 1010.4
20260903233200 81 232 0.0 0.0 0.00 0.60 0.60 80 1010.4
20260903233059 81 232 0.0 0.0 0.00 0.60 0.60 80 1010.4
20260903233034 82 232 0.0 0.0 0.00 0.60 0.60 80 1010.4
20260903232933 82 232 0.0 0.0 0.00 0.60 0.60 80 1010.4
20260903232858 82 232 0.0 0.0 0.00 0.60 0.60 79 1010.5
20260903232758 82 232 0.0 0.0 0.00 0.60 0.60 79 1010.4
20260903232702 82 232 0.0 0.0 0.00 0.60 0.60 79 1010.4
20260903232658 82 232 0.0 0.0 0.00 0.60 0.60 79 1010.4
20260903232557 82 232 0.0 0.0 0.00 0.60 0.60 79 1010.4
20260903232539 82 232 0.0 0.0 0.00 0.60 0.60 79 1010.4
20260903232519 82 232 0.0 0.0 0.00 0.60 0.60 79 1010.4
20260903232356 82 232 0.0 0.0 0.00 0.60 0.60 79 1010.3
20260903232255 82 232 0.0 0.0 0.00 0.60 0.60 79 1010.3
20260903232157 82 232 0.0 0.0 0.00 0.60 0.60 78 1010.3
20260903232150 82 232 0.0 0.0 0.00 0.60 0.60 78 1010.4
20260903232055 82 232 0.0 0.0 0.00 0.60 0.60 78 1010.4
20260903232038 82 232 0.0 0.0 0.00 0.60 0.60 78 1010.4
20260903232019 82 232 0.0 0.0 0.00 0.60 0.60 78 1010.3
20260903231853 82 232 0.0 0.0 0.00 0.60 0.60 77 1010.4
20260903231753 82 232 0.0 0.0 0.00 0.60 0.60 77 1010.4
20260903231653 83 232 0.0 0.0 0.00 0.60 0.60 77 1010.4
20260903231552 83 232 0.0 0.0 0.00 0.60 0.60 77 1010.4
20260903231519 83 232 0.0 0.0 0.00 0.60 0.60 77 1010.3
20260903231430 83 232 0.0 0.0 0.00 0.60 0.60 76 1010.4
20260903231351 83 232 0.0 0.0 0.00 0.60 0.60 76 1010.3
20260903231251 83 232 0.0 0.0 0.00 0.60 0.60 76 1010.3
20260903231153 83 232 0.0 0.0 0.00 0.60 0.60 76 1010.3
20260903231146 83 232 0.0 0.0 0.00 0.60 0.60 76 1010.3
20260903231051 83 232 0.0 0.0 0.00 0.60 0.60 76 1010.3
20260903231035 83 232 0.0 0.0 0.00 0.60 0.60 76 1010.3
20260903230848 83 232 0.0 0.0 0.00 0.60 0.60 75 1010.4
20260903230748 83 232 0.0 0.0 0.00 0.60 0.60 75 1010.3
20260903230648 83 232 0.0 0.0 0.00 0.60 0.60 74 1010.4
20260903230547 84 232 0.0 0.0 0.00 0.60 0.60 74 1010.5
20260903230519 84 232 0.0 0.0 0.00 0.60 0.60 74 1010.3
20260903230427 84 232 0.0 0.0 0.00 0.60 0.60 74 1010.4
20260903230408 84 232 0.0 0.0 0.00 0.60 0.60 74 1010.4
20260903230254 84 232 0.0 0.0 0.00 0.60 0.60 74 1010.3
20260903230058 84 232 0.0 0.0 0.00 0.60 0.60 73 1010.1
20260903230052 84 232 0.0 0.0 0.00 0.60 0.60 73 1010.2
20260903230019 84 232 0.0 0.0 0.00 0.60 0.60 73 1010.0
20260903225928 84 232 0.0 0.0 0.00 0.60 0.60 72 1010.1
20260903225842 84 232 0.0 0.0 0.00 0.60 0.60 72 1010.1
20260903225741 84 232 0.0 0.0 0.00 0.60 0.60 72 1010.1
20260903225652 85 232 0.0 0.0 0.00 0.60 0.60 71 1010.1
20260903225641 85 232 0.0 0.0 0.00 0.60 0.60 72 1010.1